GFSSW_con_3kmhel_108.txt.gz
Helicity
186 103 54 52 46 37 38 42 39 38 42 45 46 41 36 27 31 5 24 43 48 32 8 16 36 72 87 83 86 75 20 -5 0 -2 6 32 18 15 -1 20 38 47 28 73 122
221 192 96 54 60 42 34 37 39 42 43 37 43 42 37 24 40 48 33 48 30 35 21 7 29 69 93 87 78 80 33 17 35 33 25 44 31 39 37 43 45 52 90 119 135
199 207 191 97 66 55 36 34 33 37 47 44 37 47 48 37 11 19 65 51 15 20 33 26 36 67 94 99 79 75 47 50 46 46 42 36 42 64 56 58 49 30 45 105 132
168 203 204 177 73 62 51 30 29 31 51 49 49 52 58 16 77 28 90 96 26 22 42 43 43 51 78 93 92 74 68 72 76 65 49 34 47 33 37 15 72 56 71 108 96
193 173 206 156 143 73 65 47 26 37 54 52 57 66 41 18 32 43 24 66 60 44 31 37 45 42 42 62 86 75 59 62 70 56 48 56 25 24 8 13 50 68 69 68 65
190 190 159 152 162 54 88 60 43 44 58 53 59 70 48 47 49 71 50 40 69 57 51 54 59 48 59 70 53 83 62 60 56 47 54 40 24 62 24 48 46 63 48 65 72
201 167 175 188 187 188 84 42 46 45 50 62 62 63 57 25 47 53 90 69 80 69 67 50 64 59 59 87 90 87 68 55 47 63 59 67 23 32 23 62 38 51 61 65 68
224 144 157 156 214 213 102 75 73 61 60 76 70 55 52 46 56 12 49 88 88 92 97 75 71 88 104 82 82 87 76 77 85 70 82 54 28 39 65 28 34 47 49 59 68
119 170 92 137 176 266 142 64 106 77 85 89 86 93 35 76 50 23 43 83 71 103 118 105 102 122 97 84 97 88 113 104 89 69 76 38 48 56 34 52 55 47 43 52 58
51 122 85 87 158 355 349 102 75 131 120 135 168 121 81 84 77 84 63 79 131 113 134 130 133 100 102 91 101 94 94 87 92 61 55 55 40 45 28 31 21 23 31 50 63
7 49 88 21 50 218 292 240 246 322 180 239 169 273 183 173 81 108 122 131 162 113 130 142 118 101 36 41 57 83 106 117 73 59 60 64 58 47 36 29 18 27 49 69 76
44 35 47 -12 -23 42 211 187 289 170 224 109 178 153 203 181 135 111 84 148 155 123 152 177 109 34 71 73 76 77 106 100 80 54 40 88 83 54 39 24 20 24 39 67 77
71 39 60 -62 -94 -112 97 277 255 224 144 144 114 131 161 152 157 75 58 79 101 110 107 96 99 125 93 101 86 67 72 80 84 81 -5 38 25 2 60 50 45 47 45 40 90
89 55 40 59 -78 -188 -53 84 165 267 215 244 231 91 142 169 162 143 77 99 166 81 89 96 116 74 84 87 68 75 49 60 72 88 108 79 57 88 48 59 64 53 41 52 74
54 76 37 41 -98 -79 55 275 197 367 216 111 213 205 172 236 200 206 126 184 108 153 155 148 117 113 113 81 78 67 81 63 75 83 98 56 62 48 20 35 95 111 98 33 65
31 74 61 34 -45 -41 75 -20 226 373 125 260 297 324 282 160 193 224 258 246 171 120 171 93 146 92 66 90 74 110 101 97 97 105 91 49 70 24 16 34 62 58 39 45 21
42 46 58 37 46 -86 -104 -31 293 327 197 157 246 337 259 320 258 288 254 244 262 231 161 140 137 148 176 108 169 111 121 137 109 121 93 172 89 75 -3 19 34 25 41 48 49
35 52 14 20 29 29 -70 41 288 129 236 212 244 242 191 330 222 285 224 191 136 160 125 162 148 136 164 112 149 105 109 180 146 93 90 105 97 90 87 37 14 33 36 28 42
33 16 -24 15 18 25 -165 -179 277 236 182 329 287 209 246 214 213 277 204 202 213 219 248 151 127 97 137 171 146 217 201 103 91 140 113 116 100 112 30 85 32 33 41 35 50
-17 20 10 4 23 61 -153 -84 114 171 166 158 281 280 234 250 276 194 221 136 174 176 143 167 145 146 142 190 219 185 154 195 216 182 135 121 119 130 93 87 77 56 27 42 50
-33 -34 1 -34 57 98 -105 -108 6 233 220 207 268 309 211 254 210 155 178 158 157 200 163 180 142 122 170 159 143 250 265 271 244 178 190 129 147 79 57 53 111 73 64 30 24
-41 19 40 68 60 102 -131 -88 48 234 171 265 248 285 218 192 190 151 98 136 95 185 233 231 119 141 101 197 125 68 96 114 196 215 203 154 113 120 64 45 38 61 32 32 25
-45 6 -3 84 68 58 -100 -395 -36 86 172 318 284 186 263 237 219 156 105 173 101 100 136 266 178 147 115 143 172 164 138 120 95 140 125 132 180 80 42 41 11 -8 57 120 79
-33 1 1 35 58 46 -53 -380 -241 49 53 256 337 251 213 205 207 153 133 206 128 81 105 198 196 132 150 141 153 196 150 132 116 171 128 131 95 97 36 14 42 66 46 90 94
-34 -14 16 39 14 25 69 -23 -225 -4 45 18 252 200 206 207 132 140 210 265 223 143 99 124 95 134 71 130 72 59 130 128 113 92 124 79 66 51 16 13 49 21 27 18 13
-4 -26 23 62 107 25 36 88 90 -147 115 176 203 193 290 168 231 250 184 176 220 186 95 182 121 106 101 103 73 66 68 67 82 89 73 69 29 22 23 33 47 16 36 42 22
19 6 -7 56 146 112 69 102 -7 -88 -6 160 69 159 183 156 123 102 250 190 159 195 176 227 212 128 46 32 48 52 59 57 62 100 82 91 31 -33 11 -15 0 39 41 24 18

GFSSW_con_3kmhel_111.txt.gz
Helicity
179 163 140 135 96 53 45 33 32 37 43 46 51 42 47 35 35 6 23 21 46 29 6 3 12 33 47 57 66 88 35 5 13 1 4 19 1 4 51 -15 -2 17 39 90 141
178 190 162 153 134 79 54 55 41 30 37 44 51 49 36 35 42 45 16 36 47 47 2 2 13 31 36 44 61 58 29 38 77 73 49 24 -2 9 5 13 24 44 108 112 113
166 194 198 160 140 158 67 51 58 41 32 40 46 48 46 42 3 3 83 62 16 22 -0 4 17 38 49 53 46 42 48 62 34 62 63 44 25 44 -4 -14 12 22 85 86 102
187 171 206 167 145 154 157 62 50 49 37 38 55 56 60 33 75 65 47 58 30 15 11 22 21 35 58 52 45 83 45 96 89 69 58 42 70 32 20 -5 86 93 91 120 72
179 171 169 197 153 110 164 106 58 40 34 55 59 71 67 15 18 46 31 14 33 29 8 11 26 28 52 51 61 49 77 62 85 60 47 57 27 22 20 24 38 74 74 79 96
133 151 185 180 167 129 129 188 85 57 41 60 62 80 57 51 67 68 67 46 24 31 14 14 50 40 96 52 67 89 52 50 67 48 39 41 25 50 18 23 14 52 43 48 64
99 141 136 167 144 144 167 140 87 101 90 56 59 72 81 37 82 44 69 74 46 29 42 25 52 82 66 107 70 92 67 39 40 33 44 43 28 25 17 18 26 36 46 47 51
87 98 135 131 126 139 135 215 145 64 94 42 51 63 76 43 55 24 49 72 60 52 75 53 43 70 86 113 73 65 62 87 43 94 78 68 47 51 94 62 59 26 41 60 46
83 68 85 80 95 135 162 172 254 52 67 38 55 54 59 60 75 34 22 51 67 70 76 84 62 46 73 72 71 62 99 27 75 28 90 36 72 86 64 31 52 51 45 51 55
66 53 36 49 36 67 115 226 153 98 157 132 159 94 133 47 57 90 39 30 78 83 110 95 94 85 83 91 109 61 60 122 107 36 48 62 45 58 32 29 28 26 28 51 65
69 55 62 27 39 -47 4 77 133 165 411 374 171 228 194 82 122 116 75 76 77 92 101 86 108 96 53 41 52 117 151 145 118 81 74 68 63 59 51 35 18 17 23 25 67
55 70 85 52 71 -59 -100 64 289 205 252 176 130 154 190 203 126 71 98 149 130 107 62 101 96 50 26 45 58 96 125 106 82 91 64 69 81 62 33 20 13 13 20 28 26
43 49 85 69 39 -26 -68 -28 68 207 142 116 89 129 163 118 127 85 69 62 101 65 63 78 71 34 56 67 95 75 88 89 97 95 57 49 31 12 12 50 55 37 37 42 50
43 37 53 71 1 19 -116 -71 89 22 180 51 181 133 99 165 127 178 64 81 113 71 64 52 38 84 62 74 50 80 30 59 123 116 108 50 18 153 81 39 28 37 52 67 75
36 32 39 67 41 101 89 16 90 63 195 34 112 127 172 247 148 157 75 60 120 94 94 98 71 117 99 64 38 65 84 77 70 88 92 90 90 18 -14 46 43 137 120 126 58
41 42 26 27 23 -9 39 26 116 42 124 74 282 170 167 132 154 96 202 188 95 82 98 60 82 99 74 57 72 103 91 99 77 76 102 72 65 64 59 35 65 45 30 39 43
84 39 21 10 28 45 13 -165 123 73 74 177 184 167 116 199 139 212 159 195 249 201 161 149 134 104 123 70 148 132 98 120 69 131 86 46 127 96 150 41 65 96 92 67 67
59 49 2 -10 9 11 36 -27 -71 216 126 107 57 92 59 177 116 197 171 158 160 185 167 174 179 146 147 117 176 105 79 171 93 108 78 137 99 64 45 17 22 37 64 32 49
47 35 13 2 -1 22 63 94 110 85 232 257 98 57 39 119 173 165 167 220 175 165 159 114 126 74 119 105 97 80 106 72 78 134 154 137 103 58 64 39 126 108 57 33 69
41 41 41 -8 12 37 94 67 -115 206 121 314 128 113 151 131 190 160 181 124 143 123 123 129 110 143 76 90 54 88 63 140 198 170 138 145 83 91 95 84 82 88 77 77 54
35 28 6 -9 56 85 133 80 -107 163 203 171 327 142 80 148 106 119 178 135 145 151 119 123 160 157 173 136 135 152 192 166 138 141 185 124 100 76 83 75 92 87 95 74 60
53 31 19 50 71 124 90 67 27 -133 169 -59 206 327 327 78 109 99 87 140 124 161 201 116 184 170 89 79 27 54 76 89 146 127 114 90 90 59 88 84 133 88 85 67 36
50 31 7 34 55 56 9 3 49 -54 273 -101 19 243 265 246 141 114 88 82 128 129 228 134 236 108 135 130 185 160 98 83 76 83 72 137 162 118 88 100 41 65 68 48 65
48 41 -1 34 59 46 7 6 2 -24 -61 39 66 166 332 385 149 109 89 177 198 96 214 61 126 142 173 133 72 72 118 84 88 118 85 93 80 83 81 80 52 49 49 46 72
45 49 40 47 55 63 -1 123 21 -20 -124 22 -141 147 289 229 186 297 97 150 192 131 123 67 55 79 50 60 142 50 44 83 103 91 95 59 43 57 32 49 22 14 61 57 62
63 58 32 14 38 7 86 72 30 43 37 -16 -99 42 184 201 127 103 82 78 227 141 86 85 109 50 61 38 123 73 72 57 51 64 43 54 25 47 61 50 35 39 56 57 54
44 35 33 4 25 21 55 2 66 87 24 139 -70 87 195 280 82 57 87 94 99 206 144 105 120 99 65 75 127 51 60 81 58 67 68 76 39 11 24 30 38 47 63 61 58

GFSSW_con_3kmhel_114.txt.gz
Helicity
172 198 164 181 209 171 151 92 37 33 32 38 31 32 42 56 54 31 17 -26 36 19 16 3 2 18 56 68 68 85 67 6 13 48 56 122 25 44 84 42 72 28 62 148 177
135 167 196 176 179 215 197 165 63 31 32 36 42 42 41 45 44 29 30 21 71 30 27 -13 15 20 43 57 38 86 76 91 118 130 123 9 16 44 34 10 20 94 116 138 150
159 125 150 198 181 184 193 197 184 43 31 34 37 49 54 54 -29 -4 75 90 68 35 7 4 14 30 43 53 54 54 37 138 33 116 151 75 46 90 36 1 30 63 146 144 130
141 143 117 147 194 203 174 202 206 168 39 28 35 45 70 57 57 48 26 14 34 28 33 42 33 41 69 43 52 64 45 105 105 63 87 60 68 59 34 13 84 122 117 159 105
121 107 123 121 163 192 180 193 207 172 65 39 34 53 80 39 58 49 39 1 -7 39 15 19 36 43 58 60 53 52 83 115 83 57 75 107 63 54 43 28 37 97 131 149 125
79 98 111 107 118 158 168 172 208 187 226 55 57 74 72 70 47 39 70 68 39 24 13 23 47 33 67 79 86 72 73 96 83 62 39 63 52 57 23 29 40 63 127 95 139
104 94 89 106 103 138 165 170 201 207 173 27 70 69 61 64 116 132 76 62 48 44 13 19 30 128 81 132 81 100 100 127 120 75 66 81 44 53 37 87 64 63 78 129 85
94 105 94 101 86 119 119 151 185 211 190 46 95 107 106 33 52 68 62 65 85 66 28 46 57 100 110 119 133 105 98 115 69 60 112 125 62 53 131 89 73 62 104 116 87
78 60 85 89 82 84 98 84 195 182 168 57 148 191 158 -3 82 61 58 51 50 73 66 106 113 85 119 133 131 102 123 67 104 96 167 126 61 111 102 72 57 56 59 56 105
62 62 61 64 68 67 83 129 169 156 104 33 169 107 177 125 94 50 63 50 60 80 93 119 158 106 98 141 142 107 79 82 89 93 106 67 67 71 77 63 59 72 59 67 108
56 51 56 62 66 54 21 12 172 143 111 326 163 222 160 29 122 64 79 84 68 89 122 122 141 143 82 64 65 69 98 117 88 118 76 42 72 66 60 62 54 52 56 60 89
67 61 51 65 70 56 -0 88 234 160 295 208 189 71 73 140 155 158 73 187 154 161 103 130 132 104 50 34 35 77 163 169 154 133 79 32 54 49 54 44 47 60 73 53 76
81 64 61 45 57 20 -18 40 18 -134 132 175 158 176 206 249 199 112 115 124 190 144 117 121 108 89 51 63 77 96 118 131 108 107 88 67 41 55 91 108 65 70 75 84 56
69 72 54 39 9 79 17 71 81 -25 74 147 129 116 137 182 234 161 86 132 227 131 106 83 54 24 42 89 84 117 109 83 111 159 125 127 -4 114 76 38 52 74 119 130 131
37 91 62 39 14 36 52 -73 -12 85 141 84 128 167 191 266 224 191 145 87 177 159 132 144 96 70 74 35 83 107 101 119 118 116 116 124 102 6 17 69 61 142 122 113 146
30 49 75 34 19 -5 13 11 -89 202 202 165 84 127 227 217 165 144 241 111 103 137 84 78 135 88 132 114 137 121 105 127 135 121 101 87 92 21 24 56 132 142 55 33 65
18 18 34 39 34 2 20 39 110 275 215 142 170 70 137 260 176 292 167 174 220 238 180 145 111 196 176 181 154 140 224 176 120 165 133 51 64 177 96 147 90 119 142 134 97
37 31 34 29 17 -3 36 60 169 233 179 182 117 57 86 175 235 348 185 206 190 289 314 269 254 213 224 212 204 213 226 280 157 103 32 109 106 131 26 29 22 95 73 49 77
66 74 60 31 25 25 74 144 163 179 217 153 110 43 33 72 169 286 437 304 266 295 329 230 206 135 263 264 160 267 169 101 101 87 108 171 171 128 96 60 147 201 102 96 97
33 36 36 39 12 54 100 107 93 189 149 163 156 54 60 54 178 231 264 194 231 167 179 209 164 146 208 116 87 189 165 165 195 169 165 163 150 141 79 63 223 129 73 65 86
34 31 72 15 63 97 122 111 41 87 166 32 163 102 89 85 117 199 276 157 167 177 153 178 166 182 271 264 191 162 190 197 177 223 212 145 119 136 103 235 247 134 97 70 99
60 38 32 44 106 126 94 87 23 38 80 94 34 142 162 136 64 137 121 213 113 193 157 170 226 209 132 175 128 124 129 206 263 239 140 135 150 208 170 177 177 161 138 85 80
12 55 22 60 28 49 51 15 12 26 82 -109 -82 39 206 132 133 45 80 62 213 84 178 172 294 243 159 165 144 150 138 167 167 182 130 185 212 118 128 235 208 106 65 61 60
19 5 34 72 46 29 -21 18 24 -3 -3 77 -173 -55 197 159 148 160 31 78 59 164 100 214 243 296 386 294 417 227 158 127 130 165 162 139 127 191 175 141 112 99 68 94 91
-2 13 34 55 50 1 6 -93 58 68 9 -0 50 -120 42 141 267 170 66 161 183 130 50 221 161 133 145 203 136 119 122 106 141 161 212 169 117 84 97 119 101 97 120 131 152
4 -8 62 49 49 22 -0 -25 5 45 20 -0 -67 -130 -61 9 320 544 403 171 215 125 143 264 121 80 81 58 88 105 82 94 101 114 111 94 22 99 94 99 150 118 108 100 92
33 28 46 41 37 32 8 9 -26 16 98 74 18 50 -51 -150 33 224 198 255 338 206 168 229 169 121 60 55 77 93 107 119 99 61 95 91 85 93 62 71 99 138 151 90 99

GFSSW_con_3kmhel_120.txt.gz
Helicity
100 111 151 145 139 160 196 207 201 149 162 169 153 45 39 48 44 7 -13 53 7 -24 30 36 41 83 100 85 98 74 47 61 132 117 82 90 121 106 67 173 85 6 44 -11 94
137 122 104 137 128 135 121 177 206 172 149 148 165 146 34 39 -0 10 52 42 18 17 33 32 48 85 121 76 132 127 39 98 135 155 99 122 160 139 135 143 150 83 69 136 166
124 136 136 118 116 134 120 137 166 189 148 147 160 161 60 42 -14 -27 49 27 -13 -3 48 48 91 102 96 106 134 108 1 105 169 246 179 130 138 125 126 97 61 58 79 149 163
108 119 140 127 113 115 133 120 115 148 167 133 155 201 148 66 74 104 173 178 59 80 82 70 85 109 121 103 101 89 13 85 82 183 247 115 143 122 118 95 108 56 112 175 173
95 131 126 104 109 109 110 121 97 102 151 110 140 216 155 142 96 26 102 90 123 108 69 78 81 84 88 95 125 71 8 56 98 136 147 136 90 67 67 78 92 76 133 145 174
65 101 113 105 113 111 102 102 98 83 104 119 168 237 103 101 61 40 34 8 23 86 72 73 53 63 96 73 128 98 31 98 111 120 130 111 94 69 61 83 91 99 104 140 190
57 79 103 108 96 103 112 103 81 81 84 95 174 192 151 94 55 114 137 127 78 70 80 65 36 111 80 123 67 96 109 109 164 150 104 114 95 67 41 78 72 74 97 127 146
62 57 102 111 113 91 83 90 88 73 71 87 198 188 78 105 19 45 89 164 139 99 61 46 85 52 84 145 184 126 129 147 109 176 143 150 30 53 51 71 43 28 101 126 111
63 69 79 110 130 120 75 64 43 59 84 77 148 180 35 -45 55 60 39 75 64 95 70 61 117 100 97 131 167 189 184 148 117 97 134 174 69 35 82 103 62 56 72 152 109
52 60 62 59 100 112 75 47 33 11 19 55 105 272 146 99 141 49 39 76 95 119 118 114 181 191 174 214 207 208 139 118 109 110 141 158 104 105 83 72 69 83 86 93 104
38 52 52 52 45 83 62 -12 6 43 40 145 161 241 309 121 140 82 118 109 121 162 170 197 249 227 151 192 139 110 128 113 99 118 145 147 122 94 95 114 81 68 60 56 65
41 52 41 43 32 69 35 10 -36 19 11 104 61 136 48 91 285 100 134 207 222 193 268 246 174 134 154 168 145 141 107 115 112 138 133 186 127 139 131 105 103 70 82 95 82
34 38 37 39 27 52 68 34 22 -6 -12 18 94 25 88 68 195 194 158 208 252 263 276 294 227 157 141 157 126 114 137 93 93 127 137 147 156 123 100 94 46 65 75 61 70
25 33 38 48 59 30 102 9 45 12 -20 -52 69 105 127 144 200 63 260 184 280 214 286 276 185 138 164 117 141 108 146 110 114 126 128 115 107 141 108 91 89 41 67 63 82
23 26 40 60 89 61 73 52 51 24 16 -6 53 119 157 256 319 60 115 167 174 340 379 278 232 249 129 135 142 137 140 103 108 127 160 166 144 67 109 110 45 21 68 68 73
27 25 38 71 104 93 39 49 50 128 102 125 45 67 214 205 234 217 79 131 132 173 184 214 218 230 222 109 148 204 154 168 189 173 164 144 151 23 123 106 97 112 91 83 84
43 36 42 92 118 91 46 61 172 205 178 87 126 135 58 124 178 255 191 147 214 177 162 142 156 190 221 167 161 179 243 297 295 310 214 89 147 138 113 59 63 84 76 106 113
51 42 69 122 147 113 99 176 206 163 99 66 100 177 117 61 124 130 155 223 257 220 153 258 236 140 190 157 251 170 248 427 400 376 250 196 123 99 -13 29 101 68 43 66 79
82 80 84 167 109 180 218 279 279 143 65 91 -81 108 126 -57 115 138 141 117 193 285 259 197 200 170 285 269 213 309 195 232 335 286 237 218 201 190 101 63 59 82 87 62 74
111 68 139 43 106 201 227 247 174 66 30 16 -40 13 195 103 25 141 170 149 180 209 256 233 210 252 150 281 163 227 305 329 308 234 241 213 173 179 139 109 100 128 91 86 78
99 90 33 50 79 200 190 115 39 13 3 -15 -57 -191 -96 124 38 22 247 240 214 180 254 281 218 229 244 292 309 417 327 393 314 282 221 188 143 101 124 101 127 93 109 124 63
138 155 46 47 25 83 120 123 45 10 30 6 -53 -81 -135 -169 -297 27 -25 280 164 244 176 180 269 216 277 264 229 365 443 506 372 251 281 209 114 139 57 44 103 95 113 107 86
173 129 31 79 93 58 49 49 50 42 28 -0 -11 -49 -71 -169 -270 -166 71 26 338 80 206 254 362 266 338 353 298 260 387 280 343 360 240 247 158 176 125 165 105 181 152 125 72
188 186 37 20 46 44 59 73 64 22 42 -3 -1 -36 -52 -130 -76 -229 -102 -10 361 198 245 239 433 299 405 338 431 331 227 280 318 390 231 203 173 236 138 116 135 123 128 111 72
193 206 97 97 61 48 21 -14 48 104 29 7 -0 -29 -78 -347 -192 -211 -213 -126 79 118 164 162 282 236 190 310 219 229 260 302 319 170 313 124 278 237 189 121 62 95 149 155 94
314 204 113 105 12 -20 29 16 16 33 33 47 7 3 -2 -82 -104 -345 -269 -223 5 -113 264 365 259 283 253 397 273 250 214 272 283 132 171 221 181 209 168 160 163 134 163 145 114
132 147 157 131 65 45 33 57 66 61 29 9 9 39 16 36 -28 -45 -39 -172 -224 -168 185 402 265 248 246 292 300 322 196 234 141 126 146 163 179 193 155 104 102 161 170 149 154

GFSSW_con_3kmhel_126.txt.gz
Helicity
69 70 88 101 98 94 98 110 123 117 107 124 152 168 177 152 97 61 34 44 40 53 74 80 72 82 117 143 150 162 141 48 23 96 155 151 116 165 109 109 123 92 38 19 184
72 72 67 92 109 110 103 103 117 125 103 117 129 163 161 161 93 44 19 34 73 40 65 79 90 90 136 124 159 171 121 49 49 145 125 157 112 85 103 123 95 93 85 93 200
70 63 60 80 88 94 94 96 97 103 92 102 107 144 161 121 45 37 13 21 55 20 60 69 91 103 126 131 165 137 66 87 104 126 125 179 103 90 77 114 95 126 100 116 173
56 53 64 59 76 95 96 90 87 73 77 88 91 96 133 117 136 94 85 297 225 89 120 129 94 139 125 128 129 120 55 65 38 127 137 204 209 113 43 48 57 -3 192 175 147
62 67 64 52 63 70 86 80 77 71 77 84 89 96 78 91 123 -4 110 221 307 196 156 150 165 155 144 115 138 120 84 54 23 113 95 126 173 171 107 78 110 142 188 159 144
78 86 72 68 59 57 53 54 60 60 62 88 99 121 69 54 99 30 41 35 81 234 272 209 174 115 111 122 95 90 47 24 35 34 50 68 112 122 159 128 104 131 133 148 112
84 78 86 66 56 46 50 52 55 35 44 68 93 111 104 85 125 126 113 4 -4 71 251 263 168 142 94 153 63 90 64 43 21 31 18 5 17 63 138 146 108 75 69 89 42
85 100 99 66 56 50 47 51 45 24 20 65 68 114 135 83 37 31 75 117 42 76 133 185 162 182 118 163 150 110 81 119 29 54 53 45 -48 -14 121 130 75 73 71 67 61
95 118 100 87 67 50 48 49 40 20 27 31 130 142 136 88 22 70 31 71 112 64 55 58 104 187 185 161 225 161 105 144 123 81 111 113 -31 -63 24 81 53 57 54 72 62
97 90 86 76 58 56 47 44 3 41 99 111 142 239 180 96 110 143 148 51 122 121 132 99 189 245 241 255 230 256 175 145 88 94 143 120 58 52 82 95 67 55 53 68 83
90 82 84 69 58 64 62 1 -18 89 202 165 175 202 83 86 133 235 137 111 116 151 154 164 260 250 168 195 212 213 140 79 110 128 134 145 88 30 64 68 51 60 53 43 52
86 85 83 68 53 47 62 68 68 97 90 119 151 89 -13 64 -11 62 219 127 203 166 138 194 203 133 143 137 176 178 151 121 118 116 88 71 73 40 61 77 68 52 69 53 83
88 85 78 83 44 80 89 58 53 74 142 106 128 104 83 82 106 64 135 131 153 147 175 200 146 158 200 159 141 136 138 150 133 94 115 98 39 71 46 93 77 72 83 101 67
105 87 79 106 100 80 88 52 60 61 136 161 94 12 40 78 63 76 40 174 130 111 169 194 120 131 164 152 154 125 149 143 129 116 98 70 -74 63 50 71 103 72 92 52 32
112 80 90 111 125 111 97 50 61 98 289 75 96 33 7 31 68 15 65 94 176 158 210 167 93 152 144 150 187 155 144 159 170 127 110 85 4 -111 37 86 101 86 64 62 73
96 73 86 153 149 91 67 48 91 282 269 156 137 71 64 -0 90 71 95 144 129 123 129 88 189 154 229 168 162 206 191 232 212 160 108 55 83 -188 56 25 90 66 56 58 75
98 85 96 159 148 100 90 105 292 389 181 132 132 75 10 35 69 98 129 82 79 159 150 111 125 163 179 154 141 162 181 231 237 249 144 42 93 89 74 18 34 37 70 73 99
121 100 109 126 115 181 157 261 397 180 168 86 66 -0 -29 -68 -100 121 126 94 61 41 354 222 182 161 200 222 247 214 226 348 252 241 136 122 146 68 -69 8 72 94 164 129 98
172 155 129 97 121 140 266 401 268 160 108 120 73 12 68 6 -151 -27 250 -19 -24 77 117 145 221 170 300 400 262 206 229 225 297 257 156 91 134 125 112 83 55 47 70 65 63
239 197 131 108 122 224 323 318 237 144 112 89 117 82 10 -17 -2 -226 28 186 -13 -104 136 97 82 193 165 284 195 214 188 322 321 246 201 100 122 122 31 89 91 89 95 61 73
294 243 161 126 187 257 327 293 179 106 51 86 97 54 38 26 -20 -151 -122 116 -7 117 24 4 236 183 249 222 338 354 216 257 312 385 253 131 113 119 110 45 45 81 41 73 65
344 325 163 174 255 308 289 232 135 85 77 81 52 22 23 42 -16 -89 -199 -151 -56 -51 87 -86 62 244 131 216 215 257 333 337 409 351 296 164 148 79 21 -10 85 61 62 55 53
380 317 171 273 298 296 203 172 159 104 59 53 62 14 5 -22 -46 -80 -28 -60 -89 -68 128 135 6 5 175 239 259 300 254 239 335 243 196 281 177 276 189 106 19 25 104 87 89
410 318 237 270 250 212 180 173 135 92 58 64 60 29 10 -15 -42 -38 -14 -34 -19 -88 -113 -85 69 70 125 223 260 152 138 220 284 307 215 201 92 225 219 151 115 53 -48 13 98
402 325 327 284 202 169 178 201 136 109 44 48 75 43 24 -19 -13 -38 -23 4 -5 -16 -98 -117 77 100 137 78 183 85 115 101 141 194 284 117 105 126 203 131 66 9 37 56 106
417 521 380 249 265 188 197 239 122 58 70 36 30 35 36 -0 -29 -34 -29 -36 -58 -34 -49 35 51 196 103 61 -14 128 82 102 138 164 195 106 47 121 173 228 171 108 90 76 80
437 480 360 254 279 289 290 178 114 97 60 44 79 78 36 15 -31 -45 -33 22 -25 -24 -21 -48 -24 53 66 166 309 79 134 175 139 183 193 143 108 153 211 182 129 104 102 87 73

GFSSW_con_3kmhel_129.txt.gz
Helicity
41 50 47 48 66 82 93 82 78 89 107 106 108 110 104 127 77 14 54 91 38 60 106 105 120 104 126 126 163 196 182 80 85 77 39 108 87 81 140 118 167 115 101 82 151
47 62 54 54 63 53 73 78 71 74 74 85 91 101 94 97 78 6 31 23 20 35 93 100 115 125 157 130 158 215 163 81 65 73 83 148 109 100 157 134 133 139 143 117 131
45 55 56 63 67 64 65 59 59 62 66 75 77 106 108 89 59 65 34 50 -7 23 61 93 110 156 165 161 178 185 114 147 70 64 92 138 144 136 139 141 93 75 115 134 120
53 47 55 59 50 57 52 61 57 57 61 61 68 94 124 91 130 124 70 327 450 210 95 140 187 204 171 131 162 140 111 119 28 78 107 133 162 154 114 89 63 44 171 163 124
66 59 54 51 54 53 44 44 45 48 57 58 69 93 112 91 144 43 96 208 301 301 134 162 197 212 165 138 142 138 99 111 79 6 99 119 122 132 89 96 64 70 171 124 116
78 76 74 74 65 42 37 42 38 38 46 40 39 72 128 98 138 46 128 11 142 236 282 218 205 200 172 150 102 111 86 80 95 58 48 52 61 67 99 94 79 60 95 124 101
87 86 101 110 96 66 52 36 30 31 31 18 21 78 120 174 161 78 116 99 91 181 189 252 212 257 194 170 91 101 84 87 84 76 44 32 9 -28 85 119 103 77 69 77 32
99 113 139 139 114 73 58 41 28 24 13 0 31 86 178 227 92 41 46 5 26 5 125 206 204 224 252 258 154 96 106 99 56 96 114 65 -48 -2 54 106 98 100 94 50 45
134 136 149 141 114 78 63 55 19 21 12 21 88 139 180 115 132 65 77 113 106 25 21 80 102 213 242 209 231 174 115 105 101 94 152 124 -5 -45 25 72 79 82 78 66 41
175 154 147 146 118 91 77 59 2 41 79 56 88 146 125 112 116 110 78 177 156 195 175 97 154 202 259 309 190 201 141 119 152 109 163 152 74 11 31 67 48 76 74 61 54
200 158 137 142 111 98 107 89 31 102 94 92 80 145 83 91 56 72 63 145 115 250 246 105 159 191 147 164 156 80 145 54 98 129 139 95 70 37 74 49 39 42 68 63 55
223 146 139 127 106 100 121 130 85 64 9 142 133 126 110 141 86 -22 -8 80 88 144 205 237 143 136 124 130 177 171 138 93 121 103 101 84 78 65 59 85 46 39 48 54 53
190 133 138 132 118 137 149 115 89 77 63 47 44 81 109 60 93 102 98 102 107 122 151 229 248 121 114 132 139 118 123 127 123 104 116 93 19 66 45 86 61 51 43 25 19
161 135 137 183 167 118 147 82 72 60 57 25 51 54 61 -2 46 102 187 118 120 112 113 165 114 143 89 101 130 103 122 113 103 110 94 52 -46 65 28 73 104 67 71 61 40
142 137 142 191 201 163 109 70 60 87 164 87 93 65 107 76 48 59 32 120 78 108 124 157 152 116 103 113 102 116 95 99 104 85 120 89 22 -104 0 46 93 75 69 69 52
135 156 181 245 179 117 95 80 98 209 48 168 167 185 111 4 33 3 55 31 101 4 -10 130 126 147 170 118 66 79 55 70 95 117 68 97 89 -142 21 -19 75 72 74 68 70
166 146 209 219 180 99 86 124 205 194 144 149 212 142 135 40 -1 21 -2 72 97 99 33 8 107 119 161 124 76 65 268 262 131 290 132 51 128 74 96 14 7 68 76 74 73
169 152 197 178 161 136 145 190 220 153 154 142 141 94 91 89 75 51 18 41 78 26 42 43 80 121 159 181 237 180 252 333 335 272 144 118 113 54 5 21 63 104 116 107 88
192 321 246 137 147 171 198 206 162 148 124 156 66 102 55 95 89 47 -12 -15 33 105 -223 -6 48 109 232 355 245 209 243 177 188 362 163 111 80 126 92 53 36 5 42 101 67
374 336 221 135 148 233 198 205 226 145 146 182 164 137 79 90 70 45 -94 0 51 -50 -17 -13 10 195 105 248 176 279 208 291 262 185 223 104 115 58 27 92 97 71 61 49 65
408 416 238 172 221 195 226 228 193 121 146 154 150 144 104 77 74 51 -73 -17 -74 -20 -17 -28 11 118 167 227 234 255 188 286 235 158 130 42 7 -18 16 -5 24 29 38 81 95
498 492 220 215 264 270 275 206 137 127 93 121 149 121 85 71 24 21 0 -61 -75 -39 22 -16 94 -32 48 269 154 222 249 284 276 258 198 113 -15 65 -12 -6 30 12 85 55 70
460 431 145 233 314 305 279 214 166 143 112 133 136 79 49 60 17 -27 -2 9 -36 -54 -69 -36 -55 -25 124 151 145 192 204 230 290 286 158 210 124 252 131 -14 -10 33 41 103 94
428 451 351 340 355 276 252 202 155 122 99 109 90 57 61 39 25 3 -14 -33 -16 29 -24 -52 -27 -8 102 265 211 325 221 199 209 254 139 108 54 159 178 183 130 72 9 97 86
440 456 389 356 399 294 239 167 141 114 107 107 91 40 57 19 37 37 -7 -2 -20 -15 -4 9 22 6 -16 -5 22 456 591 346 230 236 218 121 81 99 139 161 138 89 72 40 48
463 560 529 396 285 248 215 189 120 75 173 161 102 33 64 51 36 -25 -28 -59 -29 -20 -30 -47 10 89 26 175 -44 -191 330 444 299 285 215 104 72 34 87 120 99 67 84 62 52
479 536 450 333 329 323 343 155 134 138 135 105 84 99 77 70 33 24 0 16 11 51 17 -44 -23 -66 -71 49 13 -231 -70 209 209 192 215 121 36 98 123 104 98 97 95 100 88

GFSSW_con_3kmhel_135.txt.gz
Helicity
19 19 18 21 21 31 38 39 41 30 28 24 26 50 76 98 102 89 76 38 50 36 16 69 195 149 99 82 61 68 97 77 42 28 27 57 77 44 44 56 17 64 98 135 125
39 43 42 24 10 7 18 16 19 23 22 25 24 36 58 92 96 91 186 170 88 26 95 90 93 94 105 95 108 104 100 49 24 40 39 60 46 83 66 55 54 73 92 113 83
76 66 73 70 40 21 8 16 12 4 16 26 28 38 48 54 8 -12 289 224 194 65 70 92 129 153 151 81 88 94 78 65 26 72 52 84 83 57 141 68 50 66 59 84 71
124 109 132 119 84 57 41 28 18 5 4 23 44 48 57 30 155 113 168 211 124 50 67 131 121 141 194 137 73 84 62 54 44 75 73 82 56 74 125 90 28 42 87 107 71
217 198 170 163 136 99 64 43 31 15 9 11 41 63 65 93 105 20 115 102 142 122 13 42 102 118 122 179 122 70 68 52 43 44 81 35 77 82 97 114 96 137 147 68 62
272 266 256 178 191 138 116 72 43 21 20 19 36 69 83 44 60 22 64 127 184 197 172 203 180 67 105 89 113 78 50 58 60 56 27 51 47 87 88 129 147 93 133 75 66
350 330 315 256 235 207 182 133 90 46 26 31 50 84 102 139 105 82 70 82 94 123 145 143 220 288 149 128 104 128 126 109 56 62 56 38 43 65 80 126 67 78 119 85 62
398 416 366 339 298 300 267 198 144 68 33 46 36 82 197 103 59 15 56 61 72 61 67 67 127 260 226 198 143 127 121 99 47 79 74 69 20 69 62 98 134 119 78 80 59
416 466 460 442 388 416 374 270 167 83 29 37 63 103 118 125 22 28 52 91 151 118 115 98 108 163 192 157 151 138 118 86 57 102 75 63 19 60 67 71 102 116 114 86 85
211 447 502 531 493 538 478 320 163 81 85 66 98 175 93 134 107 108 72 10 43 110 168 126 181 206 150 152 180 184 122 100 84 102 122 50 36 44 64 108 59 81 98 94 81
146 202 470 605 621 566 572 461 281 188 118 158 167 179 37 132 110 7 20 38 39 84 120 117 222 206 86 151 103 85 72 51 79 119 27 9 36 20 56 94 128 96 100 93 70
129 71 419 765 698 686 637 533 389 291 161 60 21 83 52 81 68 66 46 64 45 39 91 117 149 143 113 122 108 73 88 63 101 63 90 68 35 17 63 50 83 64 78 93 60
101 87 310 837 818 767 620 484 172 76 130 88 128 139 88 38 25 47 59 58 41 49 47 67 65 74 104 106 90 93 94 107 150 111 90 127 34 31 26 40 51 67 79 66 67
98 87 668 910 869 793 720 156 105 36 171 142 123 84 61 41 59 43 17 65 78 62 49 71 39 109 120 109 103 109 94 117 184 143 148 72 -42 14 30 60 73 60 83 100 74
102 117 843 976 977 915 398 136 43 -3 267 151 142 122 82 59 83 110 87 78 36 32 72 37 54 50 101 106 106 90 99 93 109 136 161 122 -14 -5 10 -29 42 36 67 108 137
70 562 1008 952 850 513 187 90 36 200 208 173 131 92 57 46 28 51 47 64 54 49 71 60 59 62 110 171 73 68 86 80 116 92 108 64 54 -49 91 -13 2 33 22 49 76
96 601 911 936 903 271 168 147 304 292 193 163 99 94 37 12 43 59 66 75 98 89 70 81 50 34 39 101 140 110 102 23 232 66 325 143 82 11 81 33 64 44 66 30 61
370 779 743 494 281 208 221 280 344 222 154 141 97 48 13 63 74 88 70 29 41 100 102 32 35 58 40 85 150 100 127 157 41 67 151 212 185 -20 24 46 27 48 52 14 30
742 761 678 283 233 198 302 396 298 229 119 115 60 45 55 83 77 67 54 36 38 110 104 92 52 102 55 122 54 84 122 30 59 129 55 63 73 -13 13 32 73 152 48 32 65
609 677 539 282 192 270 335 344 277 186 99 84 119 98 95 87 99 81 90 64 79 91 79 56 5 40 53 64 56 34 83 -61 32 18 163 129 -33 18 18 -30 79 93 121 38 -19
844 519 384 243 260 346 410 360 273 190 72 105 81 71 76 49 60 44 109 29 102 39 32 29 11 58 89 57 43 42 18 5 -45 154 268 172 128 54 65 6 85 66 24 90 86
572 569 256 326 494 497 369 357 271 218 66 83 115 98 47 16 58 59 42 62 50 33 39 6 2 24 66 55 18 7 42 91 -145 61 57 175 150 155 72 81 60 90 130 102 97
204 255 293 342 417 396 417 346 291 246 142 119 126 76 45 36 88 54 33 24 36 36 21 -19 65 35 -33 21 8 -100 -25 47 31 -54 49 127 270 55 62 79 166 105 167 135 130
276 365 338 373 396 355 363 359 301 219 127 95 86 43 33 21 22 95 86 51 43 40 25 -12 34 38 44 36 -30 15 22 165 228 -18 -24 48 62 34 43 10 27 103 92 69 106
364 346 336 484 377 321 339 342 301 287 175 72 75 14 19 120 69 67 48 66 60 50 59 16 18 6 68 106 -18 22 90 88 424 290 175 92 122 51 42 39 58 74 106 79 68
343 365 371 432 478 278 406 437 326 347 196 82 40 50 50 69 56 -5 50 77 46 51 30 -40 1 11 37 46 -54 10 57 -116 165 379 273 120 189 110 63 98 84 75 80 103 104
430 483 434 423 434 273 270 375 384 253 157 34 57 56 38 23 20 18 80 93 40 16 47 -2 -19 -41 -72 9 35 57 -41 -241 -196 26 197 206 45 32 52 115 10 7 43 52 41

GFSSW_con_3kmhel_138.txt.gz
Helicity
51 52 49 45 40 39 41 39 38 43 44 32 25 20 27 31 48 37 20 51 56 17 60 88 184 198 152 130 93 82 182 153 76 81 41 56 85 85 70 52 51 20 77 81 196
83 82 82 72 64 52 48 41 42 44 41 36 32 31 31 22 19 44 31 170 195 144 92 84 88 103 206 165 202 196 246 140 114 74 51 75 56 64 53 61 69 52 192 178 187
128 119 112 112 105 95 84 76 58 47 44 39 39 53 42 10 37 86 169 203 138 96 61 51 104 93 133 118 138 161 160 181 91 57 75 113 121 46 71 91 85 96 169 189 136
140 148 174 163 143 134 128 105 74 61 50 48 57 77 65 15 90 193 106 168 108 65 56 88 133 203 147 150 139 135 110 114 84 79 117 139 118 130 89 77 64 43 237 236 125
173 190 220 253 262 222 169 135 106 94 81 58 66 106 93 76 165 12 105 113 113 117 76 101 149 169 163 144 140 137 101 90 60 68 87 79 143 98 109 71 66 65 129 307 155
217 219 237 298 321 305 273 230 166 128 105 92 93 135 94 132 41 42 63 99 111 197 208 128 152 224 210 155 123 138 80 75 67 49 67 90 84 104 65 81 77 89 31 211 165
207 206 256 351 384 374 364 282 229 176 128 117 116 138 141 194 139 77 46 51 38 82 112 131 117 172 254 142 77 107 88 84 92 62 62 90 78 69 84 69 129 117 95 119 114
181 174 173 241 379 463 447 381 310 292 145 163 152 170 242 119 70 31 49 70 76 55 57 27 80 124 118 159 149 94 75 132 37 99 76 103 32 76 93 76 92 132 143 131 140
152 160 150 145 251 388 540 470 469 366 196 148 169 153 202 77 80 101 85 77 71 119 77 86 112 134 154 128 131 159 155 131 87 91 125 116 68 52 94 76 76 108 170 118 176
135 123 131 133 120 254 586 598 593 361 213 154 142 277 126 111 183 193 97 88 93 88 116 75 156 171 156 186 227 213 188 162 97 70 109 97 62 57 76 96 82 81 168 186 141
129 123 134 116 83 222 780 764 579 529 509 379 340 288 7 128 245 93 44 32 33 41 99 113 96 159 155 195 101 148 133 93 57 31 71 83 44 66 75 88 97 99 123 174 146
132 149 131 101 96 592 798 848 926 737 483 221 65 87 40 60 66 64 80 71 63 53 40 82 83 74 41 59 56 80 60 46 36 112 82 47 42 70 72 70 80 114 106 119 135
160 147 108 77 441 792 909 915 744 462 440 207 111 151 124 53 39 75 30 35 43 68 61 78 92 111 70 41 39 67 63 44 35 79 114 56 34 33 115 57 138 57 104 110 176
117 107 59 413 622 800 869 800 462 186 439 326 166 67 75 50 61 7 2 56 83 103 123 89 34 32 88 105 83 70 65 58 19 36 40 26 18 52 107 111 149 122 82 130 181
92 84 95 428 534 662 669 615 213 217 444 205 154 85 103 61 91 68 26 31 31 52 74 82 90 139 128 63 85 64 57 48 51 25 41 -7 65 -96 146 161 121 93 101 94 196
93 101 621 766 807 864 742 366 307 545 566 285 145 101 45 35 49 35 48 60 50 27 35 24 44 81 72 85 165 127 88 107 80 62 31 -60 69 5 144 162 99 122 72 95 129
98 320 652 721 844 771 460 494 515 551 291 273 112 101 63 34 24 33 55 61 73 64 34 28 41 73 60 70 82 94 108 82 71 112 71 81 107 113 69 87 92 58 74 121 153
330 791 661 704 785 488 422 479 422 365 346 196 116 81 72 28 43 123 64 33 41 68 48 -1 -29 38 41 16 96 44 92 172 179 149 44 -20 115 127 158 154 102 61 60 77 144
538 686 597 525 383 190 340 476 406 375 236 132 79 80 78 105 63 60 53 28 39 84 105 118 39 61 -2 68 59 30 91 47 80 129 101 47 161 94 100 100 38 123 136 88 86
387 553 504 402 148 247 364 411 326 367 275 98 101 117 130 155 127 104 71 47 118 108 131 104 22 3 49 73 34 55 89 70 137 118 28 -346 -32 148 99 25 116 47 79 154 127
490 395 339 216 192 254 274 292 380 348 222 132 109 120 107 133 106 106 112 53 89 64 82 34 6 -29 24 21 34 105 55 43 63 186 61 147 -9 118 165 96 75 64 69 114 151
298 445 190 186 296 296 309 369 339 241 172 150 122 98 94 140 138 128 109 69 45 44 75 74 20 -32 61 122 -9 29 38 114 46 14 106 -9 -97 246 158 26 134 62 61 120 213
253 150 317 268 337 357 343 386 294 331 272 250 137 103 99 85 137 104 73 18 34 72 59 43 38 -85 -4 91 197 44 17 -1 98 96 26 -30 -347 -169 178 29 73 129 169 160 197
250 462 276 263 293 268 239 338 337 233 267 258 269 56 45 50 73 119 109 80 74 92 64 88 45 -34 -30 -28 54 203 210 76 47 -58 -24 -182 -317 -136 371 390 82 139 155 152 159
291 388 301 374 295 279 301 398 361 360 201 218 234 58 60 127 67 22 47 65 98 95 128 97 23 4 -36 -7 2 90 153 116 5 -2 -75 -193 -215 -189 116 352 361 83 159 173 204
511 348 332 330 272 325 235 387 357 359 308 331 170 57 86 41 66 86 61 33 49 126 182 101 -8 11 18 18 -7 56 51 78 102 38 -101 4 -298 -124 -20 17 2 61 146 146 184
405 421 355 400 319 334 348 260 212 168 220 190 163 38 51 51 65 58 28 48 61 138 147 99 39 4 -50 22 -1 22 27 90 28 -9 -55 -59 -43 117 160 66 87 69 67 83 86

GFSSW_con_3kmhel_141.txt.gz
Helicity
59 65 72 66 68 68 74 68 65 71 70 69 55 41 39 45 47 62 115 105 81 48 65 97 151 170 264 249 212 223 260 190 155 139 123 65 80 80 86 69 110 76 36 98 266
79 74 77 88 108 101 88 98 81 75 83 75 67 52 42 47 59 64 10 -61 99 102 121 134 124 117 265 298 290 293 308 190 232 120 125 56 100 145 159 122 88 92 71 136 248
113 144 158 164 148 147 139 135 125 103 80 88 85 82 61 51 82 87 -36 65 88 74 85 87 93 142 206 220 288 255 210 226 152 93 82 59 70 82 185 149 65 102 78 116 224
164 172 179 162 153 176 202 211 158 137 138 124 137 126 106 84 107 113 84 148 152 116 125 74 137 255 272 202 173 270 158 181 145 126 106 96 77 93 163 175 59 72 77 168 171
159 170 167 168 164 174 228 283 255 179 172 193 172 164 168 135 289 128 35 92 104 155 190 239 132 185 214 207 166 145 153 152 117 86 58 65 62 88 114 147 84 65 135 157 172
148 160 180 177 164 178 226 282 338 319 253 215 185 167 212 198 113 48 48 156 192 203 187 197 195 206 202 192 194 261 200 115 92 102 92 89 70 102 61 105 106 75 52 159 188
143 156 185 167 156 138 122 213 273 390 349 294 279 205 281 381 182 86 67 103 131 126 121 77 137 191 278 177 100 88 98 163 97 89 64 82 85 77 77 88 115 87 104 84 183
155 145 165 167 153 128 109 80 180 429 471 481 342 283 337 195 90 8 39 83 75 66 86 50 81 171 193 200 177 175 105 129 69 84 47 135 47 51 75 99 96 91 118 96 155
143 111 139 169 128 111 110 106 129 529 569 515 440 381 313 117 87 62 37 24 78 61 94 69 122 132 163 184 156 144 187 109 75 110 99 74 58 35 78 86 81 55 49 169 153
120 166 102 109 160 149 89 412 553 624 563 434 337 500 220 211 110 165 146 137 117 123 122 75 141 249 233 171 168 163 153 121 72 63 76 72 37 47 13 59 79 85 37 91 196
128 119 135 127 146 126 375 400 436 389 550 514 338 492 295 168 211 262 148 79 85 90 79 109 101 158 140 115 56 71 100 96 54 27 49 60 41 32 41 73 105 92 70 62 187
113 107 108 108 103 187 310 332 429 376 383 244 316 352 58 85 106 11 110 133 86 76 95 121 69 88 66 47 43 55 57 34 18 23 47 109 68 51 59 64 80 78 91 84 73
108 102 109 153 315 359 534 570 537 594 470 324 187 153 90 63 32 56 61 82 72 68 55 75 74 92 70 55 47 35 40 41 26 19 28 22 -1 40 87 88 91 94 89 66 81
115 104 99 371 344 368 378 454 454 427 301 308 167 51 64 21 73 22 28 41 54 59 65 48 47 65 156 138 88 57 49 24 31 47 51 17 -27 -66 3 15 30 80 116 110 82
109 121 153 373 375 294 333 474 393 291 573 163 128 37 36 63 65 46 29 45 75 61 77 62 67 74 64 67 109 43 86 72 67 76 48 34 27 -145 -55 16 28 70 83 80 79
113 343 564 500 442 479 457 374 337 270 353 294 232 107 50 63 45 53 74 74 90 69 71 72 60 51 47 64 76 58 57 63 72 48 38 30 79 -101 15 49 30 18 54 56 111
127 404 454 317 377 381 332 269 353 400 200 204 223 72 45 53 51 69 64 91 83 94 113 59 37 32 14 20 49 78 58 -44 -40 30 58 24 13 25 39 19 22 36 65 90 104
461 391 239 212 304 323 273 238 322 244 224 300 188 19 60 75 84 97 83 77 61 67 85 63 57 4 39 69 20 41 99 97 22 -4 -41 -64 60 -66 -71 25 21 63 59 72 89
362 285 213 161 193 160 163 302 272 159 191 243 122 47 72 72 107 100 84 61 104 161 131 116 74 58 20 80 71 19 114 71 93 74 -10 48 25 -13 -17 -11 42 15 9 11 57
288 350 218 114 74 122 229 229 176 249 285 224 154 88 100 145 118 101 75 86 150 130 104 134 133 75 29 18 20 28 62 55 119 76 79 -4 103 22 70 -35 11 58 86 9 20
200 250 143 125 92 190 339 223 190 223 253 143 124 117 127 94 111 125 135 70 110 136 122 112 138 112 44 -5 7 -22 64 36 56 258 137 67 8 1 29 81 41 79 53 -29 22
273 376 205 204 325 258 264 178 170 174 213 146 147 155 130 128 172 166 141 79 78 93 78 55 142 113 -1 -29 11 22 21 174 169 108 68 75 53 77 148 66 78 23 -50 -64 -28
438 422 219 200 376 290 222 220 205 233 223 197 133 86 123 137 161 115 66 59 73 100 94 63 122 56 14 -20 -30 -20 102 91 435 150 -69 -180 32 25 48 39 62 22 108 -190 128
459 592 476 338 288 250 261 214 266 176 232 238 137 92 142 92 87 110 126 102 108 86 73 109 125 117 33 -51 -97 10 223 188 103 129 69 -71 -94 -91 -55 -50 74 215 193 -19 -85
496 541 483 621 377 287 311 305 344 305 207 232 172 168 167 135 81 62 56 31 75 102 100 129 144 119 -21 -59 -28 35 123 167 100 91 -1 69 47 82 -110 -87 -104 47 90 -44 87
404 421 374 499 486 353 278 392 249 263 292 212 191 157 100 113 149 150 78 88 70 105 134 146 167 100 12 -48 12 -20 6 96 19 91 20 40 60 -28 -8 19 -169 -123 2 81 109
371 292 274 355 238 323 371 290 230 202 190 162 181 143 130 61 55 76 57 73 82 104 134 178 199 92 6 -19 21 -42 -20 -21 -41 -28 1 -50 -55 -6 7 135 -29 34 114 136 168

GFSSW_con_3kmhel_147.txt.gz
Helicity
56 69 91 116 117 104 92 100 113 139 149 153 171 190 128 86 20 96 152 170 68 -41 4 92 113 144 189 257 304 352 386 342 270 265 292 208 110 109 112 110 107 65 117 104 223
84 95 99 90 77 81 108 122 123 135 145 151 161 201 226 186 169 146 155 -42 -65 -15 29 28 91 146 206 224 290 388 365 286 266 194 241 113 95 136 144 127 110 116 84 70 252
74 85 90 71 80 95 113 123 135 134 122 94 102 153 361 347 188 43 9 10 -12 82 80 61 73 129 159 210 273 353 358 278 273 213 189 139 93 69 6 61 59 96 27 -7 209
71 89 86 86 92 116 118 116 115 109 101 71 68 77 580 412 243 209 126 117 227 129 100 92 85 113 134 146 168 221 194 175 232 229 228 146 81 55 46 34 2 -10 -2 6 83
57 57 86 58 64 87 127 113 85 88 97 82 18 186 569 671 582 233 143 246 187 161 145 140 148 146 120 113 116 167 121 206 182 154 147 121 106 74 43 21 25 35 -16 35 113
9 16 39 60 68 111 99 90 93 66 74 60 77 382 643 633 303 199 231 285 242 172 160 218 187 221 167 158 143 170 132 111 100 139 90 110 82 70 19 55 40 43 45 68 124
21 45 63 82 88 84 88 82 83 82 69 39 60 396 575 511 348 238 207 204 118 124 73 107 120 151 222 179 200 126 127 112 107 105 128 126 74 83 44 49 67 34 59 54 114
31 43 58 82 90 75 84 73 126 98 88 98 229 475 442 292 182 94 93 88 82 41 75 82 83 143 147 111 120 162 151 129 55 37 57 106 61 26 -3 52 80 54 63 88 95
42 56 73 82 85 76 85 155 219 255 269 323 306 287 279 101 148 153 153 154 200 151 208 112 168 190 142 147 113 68 118 116 90 38 71 129 84 14 26 39 64 62 57 73 103
49 77 83 84 93 88 101 118 206 173 152 164 140 238 266 326 197 211 323 98 40 99 188 157 148 93 115 125 132 95 79 77 66 53 38 89 13 32 50 33 44 81 44 55 91
52 79 83 97 109 134 163 127 170 220 218 257 259 207 252 177 162 124 79 75 118 133 73 72 115 104 78 70 9 55 50 41 61 32 49 27 10 73 122 85 88 8 78 72 86
16 36 64 99 184 146 155 188 223 221 264 193 134 72 65 110 98 105 57 118 110 99 97 90 54 96 80 47 22 -9 40 87 22 19 -25 -103 -15 -7 -24 143 66 54 53 85 99
11 31 63 190 176 156 197 168 110 100 287 201 62 35 31 101 112 79 80 62 62 75 75 77 62 28 -22 -47 -23 -1 25 25 43 55 6 -67 -24 17 -24 -8 100 93 98 87 111
49 56 109 135 119 93 141 120 102 84 296 165 162 50 74 81 124 78 61 72 50 61 47 40 34 48 54 -12 -20 -5 -9 19 48 5 -5 -23 -157 -85 -26 15 -3 120 139 99 106
91 143 146 129 105 114 88 95 59 93 249 211 167 68 105 146 93 129 59 67 75 68 81 43 43 33 7 7 29 -37 11 -3 -13 -21 -39 16 -36 -24 -38 -39 28 38 81 96 74
110 108 76 89 84 88 64 38 73 208 176 266 176 161 152 104 101 77 88 96 92 73 86 97 65 13 32 22 5 -8 -26 -64 -82 -27 12 74 16 -166 -1 51 41 30 50 17 37
167 160 115 87 98 61 33 98 168 216 261 280 252 183 138 162 109 92 64 56 104 59 53 43 69 67 64 79 66 31 -26 -117 -155 -140 -146 -4 -42 -20 37 76 76 88 91 78 45
190 149 132 156 68 16 86 169 229 256 248 237 213 145 169 150 166 76 69 119 70 104 100 45 13 119 99 12 3 20 -24 -116 -263 -294 -232 -85 -89 -91 -23 23 19 41 67 69 77
170 177 139 92 80 51 135 179 187 220 244 244 182 231 168 154 188 128 115 88 43 77 123 106 58 94 90 17 49 28 -7 -25 -71 -141 -265 -341 -129 -61 -17 44 23 48 64 89 142
236 239 138 104 77 117 178 160 194 196 237 204 270 233 270 177 203 195 127 100 92 110 111 90 61 89 101 63 83 22 33 38 19 -117 -290 -299 -324 -267 -98 31 16 -33 90 74 35
247 245 227 152 108 183 200 181 154 132 174 226 233 253 222 250 208 211 175 108 130 143 125 120 116 100 53 50 45 23 44 82 83 86 17 -82 -163 9 82 85 105 76 106 172 206
286 265 313 209 218 205 198 238 176 198 178 202 209 220 203 204 202 202 188 131 108 139 100 108 116 34 9 50 25 43 14 39 59 155 26 -65 -72 45 141 99 53 91 120 169 98
244 303 239 240 258 232 198 222 251 265 265 236 223 197 168 215 252 188 152 95 100 131 99 83 126 82 73 118 110 88 62 44 50 -10 9 -63 -91 46 130 114 49 102 99 147 126
275 262 332 300 264 267 267 235 222 196 230 237 232 197 237 240 206 223 190 95 61 75 63 159 144 134 113 57 55 98 134 109 79 8 9 33 78 345 7 9 51 82 58 54 39
331 284 378 457 310 278 323 298 299 278 258 237 249 218 297 297 234 238 119 106 50 91 141 172 118 104 62 25 79 106 118 82 75 33 16 98 93 141 -44 11 -12 6 -17 10 22
373 378 426 423 311 296 261 307 271 212 291 280 274 215 233 289 312 255 174 145 120 152 180 217 88 91 22 37 46 58 82 41 34 57 20 -7 45 6 -9 -40 -16 -49 7 12 23
374 376 414 403 357 342 300 278 221 237 194 161 171 160 235 227 174 133 149 186 114 161 164 180 159 143 44 56 42 67 76 49 30 55 28 -33 -35 -13 32 -31 -91 -38 -10 5 79

GFSSW_con_3kmhel_150.txt.gz
Helicity
-32 -37 -27 -9 78 105 58 82 87 99 116 127 117 98 105 147 161 241 198 145 71 -13 -30 25 73 119 165 206 255 302 501 447 376 389 413 319 208 174 150 105 81 25 79 118 28
-32 -37 -12 28 55 86 70 66 97 100 101 106 90 85 59 187 434 299 190 -58 -20 -44 2 69 145 153 262 240 231 344 416 305 321 246 249 142 134 140 141 138 137 133 97 81 48
-45 -38 -13 27 14 19 31 28 76 100 76 67 69 63 57 348 338 218 61 106 68 77 68 82 70 123 186 189 297 300 351 224 231 140 156 183 114 122 107 104 76 83 65 20 5
-33 -18 0 18 29 34 47 62 80 76 68 68 89 102 262 321 263 294 211 149 266 211 175 189 180 193 195 204 114 230 134 157 116 129 179 113 95 79 88 59 60 30 44 -17 8
-5 7 24 28 24 51 49 57 69 72 71 71 103 173 343 385 401 268 238 309 206 198 200 246 212 192 223 190 112 73 91 117 117 140 90 122 102 98 61 73 43 10 25 21 27
-16 -7 8 27 33 40 54 67 76 74 65 63 87 268 375 322 228 202 149 188 238 257 227 149 205 297 302 196 158 236 201 177 170 129 114 78 82 86 27 42 27 44 23 31 38
-25 -10 21 38 43 48 56 70 85 100 100 85 92 382 359 187 206 139 78 98 83 103 104 55 182 177 218 196 234 206 168 122 105 137 151 148 90 77 43 37 11 17 34 60 76
-17 -3 36 54 56 57 62 81 125 135 155 211 222 270 251 121 55 109 112 115 144 114 152 174 126 38 105 158 172 166 109 162 65 60 89 105 76 1 -5 -31 13 36 48 49 90
-23 -4 25 54 71 67 71 121 134 129 130 87 156 136 157 72 147 117 76 130 131 170 139 134 128 56 108 125 118 81 95 107 53 59 28 142 9 17 90 39 33 2 41 65 76
-14 -14 3 34 52 76 99 137 126 77 83 72 111 128 130 153 64 83 120 158 155 153 135 102 137 166 123 98 80 64 47 35 44 114 175 43 -45 -2 99 122 126 100 -21 81 89
-21 -24 12 44 56 122 133 112 106 148 136 100 120 85 80 58 57 71 76 118 89 128 175 129 124 107 85 94 91 106 15 -7 -4 36 53 59 -42 -79 -98 18 61 104 54 92 136
-9 -11 16 41 127 119 120 112 120 122 98 103 112 47 19 47 93 92 71 119 87 100 98 91 77 31 46 40 27 6 6 6 -11 4 20 16 1 57 9 -55 11 64 37 11 104
-6 27 63 66 85 128 120 122 66 73 132 162 68 84 56 83 104 99 118 93 107 92 91 128 92 44 55 35 8 -19 40 59 8 17 -19 -24 3 -22 26 20 1 9 58 33 71
-15 6 45 14 84 80 128 80 61 58 229 124 156 94 79 79 107 108 87 93 81 75 82 78 54 59 57 58 58 9 -28 9 24 25 28 2 -64 41 72 73 22 47 31 36 40
11 16 52 133 87 128 66 47 48 96 167 131 150 60 73 114 97 130 112 130 99 98 124 96 68 54 61 59 66 39 2 -24 -36 -52 -30 -10 -41 56 77 165 132 89 65 44 53
50 44 83 140 132 90 52 48 104 185 118 254 167 162 146 121 122 112 105 131 102 112 133 104 81 87 76 44 60 17 15 1 -46 -74 -74 -129 -86 -2 75 53 102 60 79 43 109
90 67 110 142 123 89 64 117 150 171 229 220 220 193 159 163 132 131 119 99 143 143 90 44 62 61 68 93 69 63 56 -45 -36 -18 -131 -125 -68 -87 32 4 -22 73 43 103 38
79 104 119 134 108 90 125 175 195 237 211 238 216 172 189 198 170 128 143 131 116 171 147 124 83 89 85 101 89 48 17 13 -102 -119 -74 -80 -183 -178 -42 18 57 38 -18 66 126
103 128 144 98 112 104 183 192 198 233 240 242 214 255 223 189 203 177 161 136 99 111 140 158 91 73 104 102 87 71 61 49 56 21 -95 -222 -163 -212 55 16 61 82 125 104 177
126 132 81 94 98 164 219 182 221 230 263 258 275 295 314 257 242 245 168 162 108 112 109 133 137 76 83 106 101 97 63 91 82 12 -87 -168 -288 -353 -134 6 87 195 256 173 169
149 74 145 127 148 199 182 189 212 203 238 292 287 310 290 324 248 240 187 133 142 158 135 143 130 75 108 104 108 102 115 112 81 66 -40 -175 -209 -185 -94 -136 -28 54 178 208 130
136 111 233 152 171 189 193 240 219 238 214 255 286 271 274 297 277 243 227 148 131 140 141 120 111 116 77 102 62 102 119 75 86 33 32 -41 -133 -44 21 -96 -151 -70 -6 117 144
126 164 201 193 135 172 226 256 234 246 247 283 254 219 245 282 321 227 188 107 94 161 139 85 112 127 119 127 101 94 111 83 89 121 78 -5 -43 15 -8 2 -34 -45 -88 9 91
159 139 168 202 228 243 223 213 223 200 251 268 231 230 315 317 255 264 228 136 125 118 94 140 153 169 130 104 107 99 82 103 136 180 77 83 24 82 -11 64 25 8 -28 -8 69
152 134 207 274 230 249 286 298 286 272 249 239 254 219 350 369 322 309 185 139 89 127 185 203 187 147 112 100 101 56 62 136 157 172 208 65 10 46 -10 26 23 -13 3 -31 -27
228 216 277 321 301 279 265 305 289 247 274 290 269 218 257 291 278 313 257 254 182 168 225 201 198 181 91 73 59 32 45 93 119 100 151 3 55 12 -23 -37 -45 11 7 -18 -20
297 330 318 290 346 325 294 313 251 291 191 133 187 201 248 193 171 153 110 181 177 228 212 234 214 223 109 131 85 44 68 28 80 84 54 -7 27 6 -6 -73 -73 0 47 7 -47

GFSSW_con_3kmhel_153.txt.gz
Helicity
-26 -30 -38 -42 -36 -16 5 1 21 -2 -20 48 34 47 63 75 68 311 257 139 116 -11 16 -26 9 54 83 145 173 236 442 432 341 280 256 267 205 177 132 93 103 77 142 133 78
-19 -30 -26 -15 1 18 57 37 27 14 31 46 32 33 65 155 183 204 158 42 -25 -33 70 88 169 161 215 189 213 338 422 354 255 224 213 150 108 102 143 87 108 105 128 161 40
-19 -15 -11 4 17 29 33 54 39 30 37 44 50 91 200 171 150 95 69 156 102 163 92 110 129 186 180 161 241 299 335 200 205 186 212 198 112 96 76 82 86 104 159 89 39
-18 -18 -6 3 8 28 46 44 39 32 44 55 69 123 194 162 116 236 252 272 270 195 92 152 254 252 311 263 228 261 190 151 129 130 137 133 97 125 72 83 71 37 28 40 25
-22 -18 -13 -4 9 28 46 49 43 38 55 58 71 208 209 216 164 224 214 179 204 117 213 273 283 304 319 339 281 291 216 156 116 152 148 124 114 85 29 87 90 79 22 55 18
-24 -29 -26 -18 7 33 54 63 48 63 81 91 79 228 182 139 130 107 126 100 95 108 148 183 279 270 270 261 268 287 206 130 84 94 82 101 91 125 52 88 43 43 56 21 24
-19 -25 -21 -17 2 44 63 75 57 56 88 111 99 168 126 113 98 40 58 98 96 111 170 153 104 217 256 243 189 138 103 65 73 94 86 111 110 88 61 32 56 43 13 16 42
-11 -22 -22 -16 14 51 68 68 78 67 60 73 139 82 93 47 35 84 85 109 110 56 110 97 116 188 191 165 145 119 85 66 60 101 90 125 72 108 179 216 122 -37 91 34 33
-12 -16 -12 -6 33 68 87 72 52 56 53 37 56 44 85 21 62 27 66 99 96 135 118 150 175 143 134 144 142 101 131 81 64 67 116 57 74 67 127 64 189 171 76 94 68
-5 -9 5 -3 34 63 66 76 50 74 30 53 50 85 46 61 40 32 58 86 133 142 137 128 127 124 113 105 205 112 88 89 74 10 9 11 15 -37 -23 -68 2 84 118 82 76
-15 -15 3 15 5 35 53 38 66 91 100 101 81 85 38 23 17 47 47 73 89 108 164 96 176 130 72 120 85 69 57 49 24 -11 5 22 31 6 24 -34 -46 44 61 86 102
-10 -31 -38 -12 50 81 80 78 64 67 89 128 103 23 18 28 84 62 63 105 133 189 129 153 167 71 64 85 66 74 31 59 43 46 4 42 82 139 20 -54 -24 -8 43 56 80
-0 -29 -62 -25 78 86 76 83 52 56 124 161 42 51 29 80 91 57 81 95 139 170 145 201 130 73 66 78 73 83 93 56 37 39 -10 -2 40 66 91 9 1 29 18 54 54
7 -3 -28 -20 106 68 81 64 76 75 212 92 109 92 78 85 109 79 63 105 150 168 123 111 89 119 93 100 93 36 53 36 12 22 57 10 68 100 77 165 156 139 78 96 82
17 13 36 127 79 94 58 66 78 120 112 124 165 68 75 113 94 109 90 137 163 167 190 114 126 91 98 99 98 96 39 33 38 43 2 -9 -42 5 26 73 165 148 117 145 3
36 21 60 114 111 97 83 67 132 157 68 283 174 172 154 146 101 84 107 121 132 166 141 98 88 107 93 97 86 59 74 70 81 92 64 -5 -74 6 -21 11 8 34 96 151 197
46 67 79 85 98 86 86 131 122 104 205 217 222 182 178 170 146 159 152 161 231 327 268 138 94 71 79 97 98 111 112 47 17 62 32 66 -55 -74 21 -9 1 15 83 147 155
60 114 113 105 100 96 116 139 96 192 230 251 226 172 207 199 205 157 168 192 166 224 312 348 289 113 109 121 105 92 106 98 122 6 54 -0 -106 -49 -8 8 -7 -20 6 67 192
107 119 113 78 86 115 129 89 118 181 271 291 224 239 222 222 217 209 192 198 160 155 312 364 256 123 129 118 103 104 108 103 148 142 91 -34 -52 -40 19 -1 -30 -21 31 51 128
102 119 96 91 92 149 130 93 178 255 308 302 277 281 284 258 252 269 183 165 181 134 132 230 327 130 91 106 94 111 111 125 146 126 58 29 -26 -184 -82 -37 -41 -73 -29 34 80
105 93 123 105 136 149 89 113 191 223 273 321 297 303 278 290 268 259 192 166 159 172 164 203 272 188 126 114 111 133 132 181 168 147 127 61 -2 -14 -128 -58 -70 -43 -59 35 66
99 97 152 115 144 116 117 161 198 199 275 312 301 277 281 290 311 286 239 173 136 152 224 181 270 237 137 89 71 121 159 209 196 111 128 177 59 -41 -14 -82 -113 -90 -27 46 43
106 110 137 143 118 138 136 172 199 212 246 312 284 234 272 269 291 270 237 122 97 147 203 172 271 314 201 130 105 126 158 155 111 100 141 152 101 217 10 -27 1 -55 61 35 40
120 101 124 139 159 172 146 133 128 201 249 264 268 256 284 274 238 316 276 187 165 162 116 190 308 327 321 181 170 173 157 151 160 131 140 233 138 142 35 39 59 51 79 46 28
153 115 171 191 195 236 236 250 215 218 297 249 250 180 274 276 263 291 248 222 141 139 232 243 333 296 238 205 195 150 151 167 188 163 163 109 141 69 45 72 33 -9 65 98 97
225 205 222 227 297 298 236 258 222 229 312 252 245 203 217 244 277 245 242 263 226 207 244 235 301 268 248 201 196 126 135 152 186 152 126 80 30 -12 -75 -77 -44 -34 24 96 136
297 343 300 274 332 389 307 203 211 312 216 202 221 206 179 172 178 149 155 160 261 301 268 279 291 302 353 215 159 161 156 129 164 146 135 108 82 72 -58 -75 -100 -65 -24 28 103

GFSSW_con_3kmhel_159.txt.gz
Helicity
14 7 3 3 6 8 12 21 32 44 39 30 24 22 23 27 38 58 27 114 117 86 44 82 62 78 49 85 94 89 178 154 87 95 110 170 154 104 82 160 107 54 105 65 49
18 13 9 2 -1 -5 -6 1 16 23 22 25 34 37 39 24 53 75 110 55 89 86 109 95 60 67 37 41 90 59 96 108 110 166 170 209 244 228 203 168 217 193 40 29 27
9 13 8 2 -5 -15 -20 -14 -1 11 18 37 37 31 18 7 24 171 106 102 87 118 106 101 92 70 46 62 65 121 99 72 78 98 87 85 96 143 235 222 225 170 134 96 42
-1 3 5 1 -9 -17 -20 -21 2 17 24 41 28 29 35 39 109 155 170 140 121 68 68 93 80 51 89 78 56 128 62 65 38 45 79 87 148 140 117 108 26 43 79 97 85
2 3 6 4 -1 -2 -5 0 17 16 25 22 18 -4 40 70 179 132 86 61 51 41 53 73 42 44 49 74 55 16 30 64 45 42 70 56 96 103 62 30 48 37 49 101 103
7 4 2 2 7 3 0 5 20 20 14 -5 -22 -14 40 101 81 43 18 14 27 38 56 42 56 86 55 32 77 65 71 23 3 -19 12 85 179 59 28 30 51 92 44 98 81
14 6 -3 -12 -14 -2 -3 -4 7 22 7 39 82 28 83 112 14 -3 11 44 54 42 38 49 49 44 97 68 47 43 32 -2 12 84 148 209 128 60 51 124 71 44 92 56 60
15 8 0 -14 -26 -14 -7 -5 4 34 21 15 -16 16 74 -2 9 30 34 53 44 52 53 41 42 62 75 35 -13 26 22 90 91 120 95 144 127 35 20 38 52 44 23 30 71
18 9 0 -15 -33 -19 -14 13 37 49 11 6 39 7 73 30 17 34 16 21 42 35 35 30 14 44 56 27 22 132 120 119 112 76 117 99 45 19 7 18 33 41 49 21 25
13 7 3 -8 -23 -23 -13 8 51 58 49 45 38 38 12 48 35 36 25 -2 8 29 33 21 45 40 53 47 98 139 142 129 77 80 80 44 30 16 14 28 36 35 -1 25 85
13 4 7 -1 4 -13 -12 26 36 83 114 111 81 34 80 48 36 56 27 26 14 -1 -19 72 7 88 174 125 88 108 127 103 67 72 101 22 30 32 40 78 99 95 48 34 14
22 14 16 -1 52 25 31 42 65 92 103 112 33 44 49 33 38 75 28 3 14 27 55 29 54 242 137 115 95 71 124 135 131 56 85 33 13 22 44 86 53 49 64 38 134
31 23 27 12 57 56 78 49 47 63 71 48 43 82 90 41 72 101 48 72 39 53 64 72 96 173 122 100 111 74 183 220 192 105 17 53 61 41 46 75 55 58 48 44 -40
33 29 18 4 40 69 73 49 40 50 72 74 70 119 114 67 96 104 67 72 76 73 100 88 190 159 102 82 113 153 252 181 137 180 231 57 194 5 23 59 53 27 33 8 -14
40 36 29 51 85 85 86 75 53 59 37 70 139 91 119 87 128 123 81 95 77 92 136 168 157 131 81 101 170 157 183 146 103 162 159 100 133 68 14 102 70 -6 -13 -18 -14
43 50 26 53 106 94 64 68 85 84 53 140 136 151 107 164 125 149 102 110 78 102 121 48 68 134 94 113 117 117 127 115 64 126 258 53 109 68 12 118 59 9 -10 -20 0
59 58 52 67 99 55 60 85 73 60 137 140 147 147 148 151 148 140 108 105 115 175 151 172 107 181 108 118 138 123 132 296 298 325 287 41 144 84 15 120 57 1 -31 -29 -75
86 56 89 103 64 44 62 66 83 123 141 153 144 136 138 172 179 151 127 102 213 151 165 219 288 243 230 147 177 106 211 299 340 290 249 69 178 51 64 74 19 16 -17 -43 -70
53 60 71 98 50 41 52 71 113 127 139 121 69 89 152 170 189 158 106 103 211 179 241 263 255 295 207 106 131 252 230 168 253 184 251 136 60 40 28 61 42 40 -29 -49 -28
49 72 98 59 36 35 82 97 116 135 129 112 83 141 164 207 170 175 132 247 226 195 228 274 323 141 213 156 84 104 120 238 252 443 382 169 42 53 39 65 94 11 -43 -43 -21
44 36 108 50 33 90 94 96 115 120 97 107 109 147 130 191 195 200 155 218 224 238 225 241 290 251 246 161 143 201 225 205 234 268 340 322 177 23 38 70 80 9 -43 -26 -41
87 65 128 49 77 109 97 102 131 93 95 128 136 81 91 185 205 208 152 185 208 228 222 251 312 279 159 78 149 125 127 143 321 232 306 234 233 30 35 111 39 10 -37 -17 -23
101 96 83 92 84 113 90 92 70 82 93 157 145 168 209 221 203 150 167 162 181 189 237 273 335 299 233 286 215 254 171 193 163 163 257 206 179 11 70 71 56 45 -6 -6 -14
114 84 95 115 91 136 138 89 110 108 103 141 143 167 181 194 153 223 247 216 161 159 138 246 331 269 276 206 192 305 249 168 198 289 162 150 59 -7 -23 18 81 53 49 22 -6
175 138 163 132 142 163 154 149 119 110 125 154 151 100 187 245 172 149 144 139 133 100 134 260 314 175 192 167 156 137 175 195 226 199 181 86 17 -2 -28 -16 43 67 50 24 -1
221 191 199 178 199 170 128 123 112 117 168 129 131 135 154 193 175 150 218 180 187 173 292 285 267 174 178 112 99 143 98 123 164 126 95 51 33 104 -4 31 72 60 45 19 -5
265 294 252 208 183 243 168 112 102 181 115 72 152 153 137 160 194 148 146 132 140 238 285 320 240 213 210 115 212 205 82 76 77 87 82 78 74 4 5 28 44 58 48 16 -5

GFSSW_con_3kmhel_165.txt.gz
Helicity
-6 -9 -8 -2 4 7 8 18 26 27 39 42 46 71 75 88 104 115 110 66 53 38 60 80 60 82 36 77 99 91 115 89 80 124 73 13 -5 -26 36 61 26 45 41 29 48
1 -5 -3 -3 2 6 17 21 16 39 43 47 67 66 79 110 150 168 73 56 25 33 81 81 86 58 56 77 84 100 90 68 117 59 42 13 15 9 20 33 100 100 127 162 168
4 1 3 3 0 3 8 13 17 27 28 52 49 39 57 82 86 85 77 69 32 19 54 50 59 51 81 91 92 89 84 39 -42 4 14 20 35 68 58 75 82 63 81 97 132
8 6 9 3 -1 0 -1 -2 8 14 18 19 13 26 76 100 84 52 64 59 36 61 35 35 49 60 59 68 71 78 36 31 29 37 67 72 52 61 70 60 49 77 101 81 60
7 6 7 3 -1 -4 -3 -4 -10 -2 6 -2 -13 32 101 109 98 21 -1 -6 7 23 28 26 40 47 52 61 64 48 43 36 38 -12 10 40 39 72 86 54 55 58 69 89 77
3 6 6 6 -3 -5 -6 -18 -15 -9 10 13 29 79 77 76 9 6 -10 2 26 28 27 35 47 37 46 43 44 41 21 5 -1 15 52 46 57 77 71 60 64 49 62 88 104
0 4 7 12 1 -11 -17 -15 -13 -5 7 13 53 75 174 58 -8 -8 7 40 33 38 56 58 39 54 45 39 41 44 37 42 65 28 6 118 93 109 68 72 70 143 178 171 150
-2 4 7 7 -3 -12 -46 -19 -13 -16 -13 -2 29 52 92 -21 -19 12 14 37 25 35 35 19 24 30 40 41 51 53 68 50 49 75 77 134 87 76 49 91 142 199 149 92 78
-4 0 1 5 -12 -4 -64 -31 5 6 -25 4 30 55 40 -13 16 10 24 42 41 30 39 14 14 28 55 67 59 27 40 49 42 68 110 128 80 76 86 108 200 279 190 120 72
1 -1 2 0 -14 -4 -53 -7 14 39 10 28 42 40 14 28 32 29 42 27 32 43 35 40 25 39 27 54 41 42 59 73 57 58 120 104 107 86 71 142 257 297 267 163 83
5 -1 6 -3 -14 22 4 39 40 80 76 73 71 38 43 21 30 42 38 58 43 39 18 29 43 28 -2 11 62 73 65 69 75 103 123 115 135 70 116 172 292 356 322 219 171
16 2 5 -5 -4 35 26 35 35 66 88 82 25 18 36 26 37 80 53 61 54 21 26 32 44 49 68 81 76 70 68 61 79 103 128 118 127 104 79 115 248 320 286 237 187
22 8 -4 -10 -18 3 -11 3 11 34 85 61 -1 22 77 65 57 69 96 56 44 25 8 44 36 76 95 92 82 80 82 95 95 99 107 129 161 81 150 177 269 255 216 159 95
26 14 5 -11 19 22 26 16 30 30 78 24 5 48 56 80 63 147 108 86 51 34 56 29 71 104 93 83 91 77 132 126 120 130 179 166 313 182 68 152 215 165 101 111 151
30 21 8 -12 -6 33 30 33 33 58 75 16 59 47 76 87 82 67 77 84 64 63 125 28 82 101 81 95 126 108 137 117 132 134 182 178 309 164 71 143 180 28 86 149 128
40 22 13 36 15 23 26 25 56 74 73 72 66 65 71 97 84 121 75 76 78 65 100 76 86 100 92 116 108 102 138 109 87 173 181 196 300 185 214 147 139 96 237 214 124
45 24 22 15 11 16 20 43 43 96 63 82 61 73 79 72 80 138 115 101 65 44 51 43 55 142 182 138 151 197 155 90 164 230 147 276 339 163 105 82 65 176 157 90 22
49 35 14 53 48 38 49 52 95 67 90 81 68 76 71 80 105 110 111 87 80 117 118 65 68 117 126 175 182 133 166 168 203 246 317 211 242 121 154 101 99 81 10 -19 -52
56 42 44 66 75 51 69 56 43 67 80 70 50 64 62 88 108 120 81 81 106 140 105 127 82 205 201 169 225 196 179 212 299 305 377 305 263 142 172 46 -13 -37 -43 -34 -27
58 50 75 64 65 77 93 76 106 105 92 62 44 71 77 101 103 127 76 99 156 173 173 181 180 123 113 161 140 257 187 275 335 330 357 440 425 339 149 117 26 73 0 2 5
82 75 72 59 78 108 95 107 137 107 75 71 68 75 87 88 135 141 88 94 195 204 208 192 236 119 238 203 194 241 254 305 327 396 494 466 533 400 258 64 87 35 29 58 68
86 80 70 93 106 104 106 125 92 100 106 97 103 80 86 82 99 123 102 99 197 235 183 162 221 242 189 139 145 162 178 301 399 352 505 520 500 189 89 76 43 54 27 31 51
75 65 91 97 81 99 124 116 96 110 91 86 77 60 93 111 73 106 113 142 193 158 182 182 212 206 119 124 239 299 262 291 327 388 364 512 559 239 131 144 127 44 40 76 139
106 94 110 139 119 100 130 119 141 78 83 67 82 78 103 111 108 84 147 118 174 169 131 205 288 332 285 233 280 309 276 240 278 398 289 435 259 169 148 117 106 132 94 53 111
168 88 125 125 98 151 191 177 178 142 101 75 74 70 116 95 124 112 71 90 135 128 177 267 312 323 272 214 214 241 250 240 338 262 340 163 172 140 138 101 93 83 103 128 141
237 197 191 184 190 245 210 176 161 169 131 96 94 65 87 142 141 134 137 137 143 178 215 320 247 256 277 228 236 297 166 149 159 183 232 188 202 144 93 90 95 117 135 119 109
275 298 253 210 251 263 220 186 119 175 76 86 67 99 108 56 134 165 213 235 233 258 285 280 255 244 275 153 247 299 193 128 228 168 219 209 155 142 84 76 108 115 93 132 137

GFSSW_con_3kmhel_171.txt.gz
Helicity
-5 -9 -11 -17 -20 -12 -13 -13 -4 18 28 24 45 53 47 51 63 81 89 55 72 63 73 83 120 133 131 143 129 109 125 103 100 113 123 100 88 17 -6 0 -4 -23 -50 -25 18
-6 -11 -14 -19 -22 -11 3 6 -2 12 21 36 37 34 38 42 80 173 119 89 75 54 69 114 147 158 144 135 115 123 108 91 110 102 91 90 66 35 33 47 29 58 93 90 88
-12 -17 -20 -17 -17 -5 6 10 15 17 17 13 16 31 21 33 84 93 70 69 73 62 83 80 106 110 117 122 120 96 93 112 81 65 34 40 56 49 72 93 50 77 118 122 105
-17 -19 -13 0 -4 -2 -7 1 14 22 23 18 23 38 39 57 63 58 48 50 51 34 45 64 84 99 105 116 107 104 95 88 80 64 56 60 64 66 66 47 59 65 56 53 39
6 -3 -6 -8 -12 -11 -14 3 15 20 22 33 52 40 51 94 87 20 8 17 32 49 68 66 96 88 98 93 90 94 90 89 92 87 67 64 57 52 77 44 18 36 41 19 33
13 2 -10 -19 -18 -14 -11 -4 13 23 25 54 38 22 49 89 8 -20 -14 12 31 48 48 55 56 62 83 79 80 78 84 75 88 98 80 58 64 74 36 40 46 41 8 57 86
14 7 1 -9 -19 -10 -14 -15 6 24 39 24 33 59 95 58 -15 -23 -2 12 13 23 39 33 36 60 57 70 68 76 100 96 82 75 36 25 80 49 28 72 54 37 20 94 95
23 21 14 2 -10 -12 -29 -23 -2 34 36 33 15 21 82 -23 -20 0 7 7 12 31 39 33 36 56 63 53 82 89 98 116 64 59 45 41 104 34 45 64 47 52 26 98 105
22 25 23 15 4 3 -43 -25 19 33 31 27 39 57 98 -29 6 -6 7 17 20 39 40 38 35 48 59 78 98 112 87 75 76 42 46 70 78 79 61 79 70 66 65 112 109
19 22 28 28 14 21 3 30 29 44 37 45 44 82 14 18 10 0 6 16 40 42 52 59 64 63 68 88 65 63 61 52 84 46 58 57 76 70 113 110 99 94 116 121 119
23 24 27 26 19 35 28 32 41 47 89 84 98 93 16 13 15 23 18 31 39 65 66 57 77 53 44 40 47 44 54 59 116 58 48 54 96 110 114 118 63 69 105 128 136
32 27 29 21 20 51 43 62 43 49 74 77 51 13 6 9 33 26 44 56 57 56 53 70 52 54 50 59 56 52 60 75 44 18 28 38 69 49 94 89 81 78 118 153 196
33 33 36 24 26 50 49 42 23 38 68 100 55 38 24 19 36 36 48 58 59 65 57 65 46 52 67 69 62 55 67 54 34 44 34 56 16 88 105 94 126 182 192 205 177
36 41 54 30 61 21 38 10 19 45 93 102 120 44 25 31 53 43 31 47 54 58 63 56 42 50 68 55 75 63 56 52 54 59 35 65 45 83 137 170 183 184 207 193 158
50 42 60 76 47 54 21 12 33 40 78 67 96 46 37 42 66 50 36 55 50 58 89 71 81 76 69 48 75 47 66 71 86 126 122 119 142 4 123 165 143 128 176 160 164
58 51 55 70 70 38 31 34 47 95 72 73 74 67 58 61 62 79 63 64 60 60 73 62 77 72 71 78 81 64 74 105 112 129 115 70 129 60 139 131 150 203 210 242 176
64 63 67 63 59 41 43 44 84 109 81 78 64 66 58 61 68 68 68 64 63 83 75 71 100 98 80 95 93 102 76 61 75 99 57 125 162 80 146 200 253 295 234 141 63
73 84 75 72 66 72 70 90 95 87 96 119 91 65 56 66 63 66 78 74 85 102 104 92 102 127 89 91 102 94 89 82 64 112 177 298 152 88 188 277 304 247 153 68 6
120 112 81 72 77 99 117 115 60 69 111 105 89 87 72 66 63 64 65 78 73 77 98 111 70 103 139 107 110 97 104 108 152 159 201 162 172 145 272 307 255 189 80 38 3
139 116 93 87 110 137 158 102 97 108 136 110 85 81 78 74 83 93 76 83 95 96 91 97 104 104 79 93 136 140 139 143 154 127 107 208 280 125 206 181 206 154 95 134 155
175 155 119 140 152 191 160 114 127 134 132 104 79 103 96 96 107 107 111 103 100 117 139 136 139 86 98 101 130 179 164 212 217 248 228 211 227 243 199 236 160 132 117 158 150
225 196 157 189 212 203 174 148 165 157 143 127 125 126 119 130 131 140 134 99 81 105 130 152 153 106 68 129 179 179 146 239 285 208 357 383 484 218 184 215 144 100 182 114 118
261 231 193 221 223 188 197 190 175 212 145 128 116 131 139 143 171 134 123 94 108 133 119 109 142 109 90 118 142 176 178 244 310 375 421 486 451 272 236 118 112 146 106 99 98
294 235 266 264 213 181 235 219 212 199 194 191 177 207 205 163 149 151 127 104 73 95 142 141 174 188 156 121 176 229 238 248 359 393 346 599 361 267 150 185 123 105 99 99 87
315 259 242 208 204 235 233 185 285 235 215 203 215 158 220 184 179 153 148 142 123 119 175 180 152 172 161 129 184 202 216 235 357 224 362 266 343 181 187 131 109 120 106 98 103
332 324 320 268 221 271 222 161 190 257 249 202 165 171 228 192 181 101 166 144 132 159 210 226 149 144 149 135 159 163 165 153 148 145 191 138 106 151 125 123 133 141 129 90 67
381 292 269 235 269 294 244 196 152 234 175 172 135 246 188 75 150 133 112 120 133 169 178 188 190 158 134 134 124 120 57 29 158 224 203 210 168 195 193 182 157 132 102 90 74

GFSSW_con_3kmhel_174.txt.gz
Helicity
35 24 18 19 12 -2 -2 -1 -8 9 25 21 29 27 19 29 35 60 71 46 55 51 67 81 109 112 117 128 130 124 132 84 90 88 114 130 122 80 71 49 59 41 33 53 103
36 20 10 5 -0 -2 -0 -4 -6 -8 -7 -0 19 14 20 35 78 150 85 59 44 37 51 72 93 121 129 136 143 138 108 76 94 96 95 97 86 68 62 82 37 52 53 70 80
29 21 11 5 -11 -15 -16 -11 -0 8 13 10 9 7 19 30 83 81 42 59 52 50 63 60 87 110 125 135 137 103 84 87 79 73 83 78 71 64 70 88 33 78 95 119 96
34 25 10 -9 -22 -18 -13 2 10 15 19 20 26 27 35 55 84 65 42 47 43 29 36 54 79 99 105 111 117 103 96 91 79 71 71 73 82 87 84 54 70 62 52 80 93
14 6 1 1 -5 -5 -8 -1 7 10 21 46 60 40 51 76 85 17 1 25 33 47 66 64 86 85 98 94 101 99 92 88 79 82 62 72 78 70 95 62 78 62 56 51 64
15 16 14 13 6 -2 -14 -11 2 13 29 59 49 48 62 81 13 -12 -5 12 38 43 54 67 63 71 91 93 94 76 75 72 82 94 74 66 70 83 72 96 83 58 44 28 40
26 28 24 15 -1 -3 -16 -16 3 7 24 33 53 68 80 79 -18 -15 17 25 22 26 47 45 48 72 69 78 76 80 104 96 81 104 67 28 76 52 97 75 66 45 39 31 59
28 26 22 14 10 12 -7 -19 5 -0 13 21 46 61 98 -17 -13 -2 8 21 22 44 55 48 58 71 81 71 96 92 102 116 92 103 58 65 90 63 58 70 49 52 69 62 72
31 29 22 20 18 20 6 -7 18 1 10 11 56 73 111 -16 8 2 22 41 30 49 53 46 49 70 71 89 100 124 93 103 99 80 54 84 71 73 62 61 37 41 64 88 101
31 25 24 26 19 35 28 39 35 38 33 39 48 77 49 56 12 18 23 34 53 45 58 69 76 83 80 90 58 66 82 70 74 56 83 60 51 97 97 43 50 72 72 86 113
25 25 27 27 21 49 46 57 56 54 84 66 90 101 71 23 22 39 28 39 45 69 72 63 90 75 64 65 75 70 60 53 82 58 49 43 46 134 84 99 103 77 66 73 116
30 31 29 27 15 53 70 76 67 71 86 77 95 91 25 20 42 48 40 61 58 66 68 77 72 59 70 71 72 63 52 52 51 44 24 41 90 52 100 113 97 62 67 70 115
33 41 40 34 21 55 65 66 64 63 102 96 93 99 46 30 39 49 59 58 69 66 65 77 81 85 71 76 65 58 67 67 40 48 46 24 31 82 112 121 125 141 73 99 141
38 50 57 47 44 33 47 45 59 57 105 119 133 99 78 35 56 54 49 60 63 60 62 54 57 73 95 82 88 51 60 54 48 52 36 59 50 96 146 147 134 99 129 115 154
49 55 65 70 44 41 41 45 50 52 85 76 103 59 71 61 57 75 60 69 61 64 78 77 96 103 108 86 105 66 67 69 79 89 107 99 115 24 105 122 123 107 132 165 152
54 66 63 72 68 48 56 59 48 102 61 75 77 75 74 70 77 90 84 62 54 67 72 58 64 85 95 116 99 85 87 104 109 109 112 82 99 49 99 108 169 202 176 189 155
63 77 71 76 59 68 66 69 102 115 88 74 82 87 78 79 85 87 80 67 74 89 100 88 94 85 101 118 93 106 90 72 78 101 81 116 114 45 73 159 225 234 238 217 155
91 95 97 85 92 97 96 121 131 97 91 110 131 140 88 81 95 86 87 72 88 121 116 119 102 97 94 112 99 84 83 88 72 109 144 213 81 45 111 218 260 278 262 183 125
143 136 104 92 114 127 154 170 97 77 118 158 191 134 109 103 93 78 72 91 86 103 130 143 108 102 136 116 104 91 100 87 152 167 177 116 98 95 171 236 246 245 164 117 117
156 124 90 119 136 181 199 146 121 128 169 167 118 118 107 87 100 79 74 96 128 126 124 124 142 119 100 107 134 113 110 129 139 119 75 152 158 78 148 118 174 142 148 122 113
170 156 106 172 206 242 198 129 111 156 185 150 122 167 128 104 109 97 110 135 156 168 139 132 134 98 122 111 107 133 140 174 173 185 175 159 118 204 154 208 198 152 158 109 138
192 208 115 194 257 242 211 162 148 160 207 183 157 177 142 127 127 107 110 145 126 149 177 137 142 109 86 137 152 151 126 171 199 139 221 272 288 139 218 221 240 173 56 104 135
246 275 197 238 252 253 221 218 182 202 183 160 171 180 168 145 135 116 134 134 150 164 161 109 138 105 110 110 108 92 118 207 250 257 330 356 295 285 234 199 204 91 98 111 125
281 254 240 245 223 202 244 215 220 199 216 223 199 215 198 169 174 126 121 132 110 130 132 151 182 178 145 115 134 149 161 186 286 323 321 505 378 290 256 223 160 112 120 125 115
326 259 183 226 226 207 229 163 292 243 266 258 236 182 180 184 202 142 191 190 155 150 193 176 154 171 110 122 166 157 174 243 369 297 331 238 246 204 265 171 132 122 135 119 114
370 331 281 205 210 168 233 222 201 324 297 265 203 120 170 172 120 110 197 164 150 203 236 200 172 141 117 83 106 104 119 175 187 149 207 187 143 191 139 150 180 151 162 147 121
418 365 264 130 180 189 203 246 207 281 176 181 194 240 159 74 181 193 144 139 132 166 215 205 168 147 94 99 89 74 136 52 167 204 233 240 223 185 175 186 177 161 144 156 131

GFSSW_con_3kmhel_177.txt.gz
Helicity
47 48 41 34 35 32 32 24 14 -4 8 26 25 25 31 48 53 72 80 49 30 17 40 49 83 97 120 136 131 112 142 114 89 103 121 141 132 127 133 130 140 134 133 120 150
51 44 33 28 29 25 20 7 -4 -16 -12 -11 0 7 16 36 74 125 84 52 41 42 57 65 79 88 114 121 135 139 107 67 108 114 103 107 105 90 105 116 107 121 101 126 124
46 45 42 29 14 13 10 7 0 -7 -7 0 1 8 32 37 68 65 28 35 37 42 52 59 80 96 113 121 123 102 83 93 91 90 95 88 83 71 83 91 79 79 77 92 96
37 32 31 27 15 6 -3 -11 -13 -5 -2 4 12 32 37 51 66 54 35 25 19 15 27 42 68 83 86 82 100 96 92 85 66 79 76 71 78 74 64 91 81 59 63 73 95
45 48 39 27 13 1 -5 -11 -10 -2 12 42 46 30 43 53 69 16 -14 1 25 36 52 47 64 69 71 73 93 88 72 73 72 63 54 78 74 77 75 49 58 64 77 68 83
51 43 36 23 13 10 5 -8 -3 7 14 24 19 36 47 64 29 -13 -14 8 33 37 55 65 64 74 100 83 74 65 65 68 79 84 74 85 87 93 103 88 87 99 90 57 70
44 41 35 31 24 18 19 1 -9 -7 9 17 27 46 70 72 -4 -4 8 13 21 25 49 54 59 80 81 79 78 80 77 81 75 91 75 60 82 65 83 92 109 105 77 22 54
32 35 36 34 43 32 23 -23 -13 1 14 20 44 53 70 1 -1 15 7 26 32 46 54 53 73 90 90 84 97 85 95 89 82 90 64 67 80 91 90 103 93 46 45 57 66
33 30 38 43 43 26 20 -5 6 8 10 22 44 64 67 8 34 15 26 41 36 52 55 47 60 76 75 95 94 114 72 85 89 73 63 62 67 62 77 92 21 33 37 84 105
30 31 29 39 41 32 26 31 35 40 44 40 50 63 58 63 32 27 30 38 54 54 58 62 72 77 73 82 50 60 75 72 61 64 54 50 30 51 66 31 9 43 63 75 91
24 27 32 39 40 39 46 51 52 38 76 62 74 102 88 66 36 37 37 43 53 68 72 58 79 68 60 64 70 72 60 42 47 33 25 33 24 82 15 27 77 95 111 84 83
18 29 32 41 37 38 55 48 57 55 56 87 100 113 99 46 56 39 27 45 56 69 60 68 66 68 99 85 71 58 43 24 35 51 0 18 50 31 98 139 126 91 99 90 94
30 31 38 47 27 51 52 51 59 75 62 76 114 111 97 44 53 46 40 53 71 79 74 74 71 80 79 83 86 59 42 31 27 30 27 23 40 95 96 101 114 111 100 87 100
51 39 43 48 38 36 45 43 59 64 79 69 111 98 92 50 47 54 54 71 82 83 72 63 54 69 82 86 101 69 83 61 38 31 40 51 53 78 103 96 104 110 93 124 126
66 51 51 49 42 44 33 42 57 48 73 52 100 64 84 74 57 55 64 84 83 77 77 82 85 87 92 92 87 93 92 81 81 82 80 64 84 53 74 85 77 84 112 127 149
61 53 53 55 61 52 48 47 62 125 64 56 79 77 117 88 61 86 93 99 75 82 77 69 66 73 83 103 101 99 101 95 94 89 84 53 63 54 74 72 115 130 159 211 217
29 62 73 73 53 55 62 80 147 137 94 60 74 94 79 88 83 99 97 95 88 95 85 91 106 92 94 118 105 107 95 88 82 89 78 60 60 29 58 80 136 189 221 201 167
22 68 89 87 86 93 113 140 169 115 96 95 95 135 117 130 109 120 97 69 70 120 129 142 146 140 105 111 116 108 104 115 97 90 90 109 56 68 71 114 202 213 214 187 144
114 141 143 89 106 143 167 187 112 93 99 144 187 144 124 141 128 110 77 71 66 90 127 158 171 145 140 128 106 93 117 88 132 111 91 79 43 35 90 173 169 210 193 175 128
155 98 119 98 131 196 209 179 120 120 150 145 111 101 75 96 112 87 75 61 75 95 132 139 207 159 136 126 151 125 112 107 97 98 61 88 74 65 104 111 124 154 157 170 155
243 103 111 204 203 248 231 162 109 124 160 113 109 149 104 101 115 81 68 80 112 156 166 151 172 139 124 100 122 145 123 141 129 130 120 133 67 159 97 74 123 141 159 140 95
286 252 109 198 255 245 230 185 134 120 199 197 189 184 138 145 128 96 76 99 106 132 137 134 147 146 131 146 160 147 120 138 122 80 182 210 155 47 98 166 219 190 126 102 32
294 377 248 288 221 240 245 242 161 157 162 144 180 185 189 153 141 122 100 129 134 139 121 103 150 151 133 126 130 102 108 165 184 190 236 211 150 215 152 135 138 201 118 105 160
368 390 392 264 231 190 215 205 213 189 192 228 207 262 237 226 224 121 118 117 127 148 147 161 162 150 134 114 139 139 126 140 203 207 214 401 278 263 305 262 200 149 133 154 168
434 320 436 328 267 237 217 161 246 210 209 237 255 214 248 228 241 182 179 197 185 178 198 176 123 138 109 150 163 143 145 229 319 281 259 229 203 196 212 166 152 130 172 177 173
360 338 551 316 232 160 209 160 167 261 239 238 224 196 200 182 154 107 253 212 168 220 208 202 155 134 62 108 125 107 101 142 219 165 184 150 105 128 79 105 167 134 160 184 208
278 444 371 252 296 203 171 168 172 217 169 191 219 266 187 150 179 163 184 169 142 190 236 206 196 166 95 93 69 87 69 87 140 157 198 207 206 179 151 172 172 127 171 186 191

GFSSW_con_3kmhel_183.txt.gz
Helicity
31 26 19 11 4 -2 -6 -4 3 7 12 14 23 36 64 52 38 84 119 94 74 65 52 54 63 71 76 96 104 144 115 93 61 97 105 138 88 133 188 188 161 226 325 339 131
25 27 31 24 11 -5 -11 -12 -6 -1 4 6 11 38 69 55 19 61 75 69 49 35 40 53 63 63 66 73 85 90 84 125 206 208 158 84 92 84 118 126 109 135 170 161 111
45 30 25 28 26 13 -5 -13 -8 -2 0 9 14 26 44 48 20 83 61 51 54 48 50 53 59 47 53 67 67 75 82 140 119 133 127 87 104 120 108 99 105 89 99 126 135
70 61 42 31 32 24 13 0 -6 0 5 18 -5 -2 12 26 53 69 61 48 41 6 11 34 34 50 48 47 72 66 95 113 104 101 104 82 126 87 80 152 157 157 152 90 91
36 73 73 52 30 31 19 16 0 -4 -7 15 13 11 3 4 52 59 45 29 -5 -4 4 21 29 37 47 45 53 31 60 80 88 67 83 94 62 69 66 100 134 146 115 93 103
34 28 61 75 57 34 22 14 0 -9 -4 8 -13 -23 -9 7 63 60 51 27 29 -1 12 23 24 40 50 70 50 90 81 54 64 52 63 60 53 78 45 74 74 80 85 90 96
27 31 26 55 74 59 30 17 -6 -21 -15 -13 -12 -23 -2 53 55 54 47 46 31 10 26 44 48 53 65 77 84 75 55 55 44 54 69 70 44 31 70 61 55 62 78 97 90
35 29 34 24 58 79 57 30 2 -11 -7 0 5 -19 24 54 46 34 39 48 40 38 49 56 52 74 62 93 69 61 54 43 93 73 85 71 90 50 60 63 60 56 66 55 48
41 34 24 36 34 74 76 45 -2 0 3 9 2 -6 30 63 44 50 45 55 46 46 52 53 47 50 62 51 66 68 54 52 82 57 77 43 105 59 61 47 49 49 37 49 41
13 30 22 37 44 53 76 20 15 14 13 19 34 31 60 41 63 56 62 49 47 39 40 33 26 31 33 60 76 76 58 77 74 63 47 41 21 41 29 46 54 42 32 48 51
-23 -4 13 30 56 56 54 4 -4 -15 13 20 68 77 54 85 66 60 60 49 39 22 12 30 21 38 49 41 51 87 86 72 92 117 56 16 16 17 43 31 30 33 39 62 76
-50 -41 -25 19 42 50 25 18 78 78 19 -4 53 101 104 52 74 79 66 46 36 16 50 43 22 110 93 70 58 61 54 56 100 70 39 31 18 26 37 77 74 39 63 131 130
26 -44 -75 -22 30 24 36 46 53 39 9 -7 21 49 84 78 83 77 61 73 37 28 26 20 129 72 54 60 56 48 51 70 77 51 0 20 10 65 94 107 101 133 148 152 121
43 5 -43 -52 -16 48 42 47 39 40 31 -24 25 81 122 132 118 161 74 102 67 55 51 52 96 56 58 51 58 46 89 72 58 43 66 54 59 2 69 76 91 101 95 86 94
77 69 51 -82 43 41 81 47 44 54 62 51 109 158 112 143 141 127 101 83 77 59 66 114 61 59 50 89 73 130 84 71 60 33 35 90 60 152 76 83 96 96 88 82 73
73 99 155 137 6 55 52 60 74 111 108 58 72 67 99 84 102 96 114 105 121 66 70 109 92 74 103 75 84 103 70 59 45 53 52 129 78 63 65 37 80 72 69 86 69
75 134 148 136 72 31 62 106 165 172 132 55 63 68 25 66 63 63 58 68 69 69 50 67 38 75 73 64 74 73 92 61 29 44 72 64 57 73 97 70 71 72 61 82 90
68 127 181 166 200 27 103 172 221 100 97 78 52 83 88 86 61 51 60 48 33 65 97 49 49 39 77 85 102 95 113 89 64 68 73 50 45 86 84 92 54 59 78 80 62
69 204 278 226 214 251 191 278 185 163 168 71 27 44 79 49 93 59 41 48 47 62 82 71 90 111 99 92 118 111 101 130 104 72 52 60 50 65 71 46 78 50 92 47 36
144 242 245 234 265 202 244 230 107 185 163 63 70 30 19 71 96 58 47 56 92 69 162 101 123 75 110 114 123 142 127 111 111 80 46 51 48 78 55 46 71 64 27 51 49
165 158 134 296 397 336 295 228 147 137 135 111 92 36 72 97 51 99 85 71 61 72 133 122 129 86 99 80 96 142 141 142 148 132 124 85 82 117 116 63 43 16 29 62 51
146 160 116 380 401 374 178 160 121 192 111 123 139 103 59 56 42 64 47 109 61 68 99 117 128 100 138 138 161 160 141 147 147 131 176 196 74 125 95 93 72 21 39 70 82
140 166 197 296 205 297 161 117 128 129 110 88 108 120 155 97 112 58 96 160 78 52 88 97 112 126 95 116 131 129 124 178 192 189 148 146 112 98 90 81 76 82 88 89 54
58 178 211 304 271 129 176 164 133 125 152 121 107 121 94 107 156 69 121 142 122 127 177 127 127 140 159 145 122 98 98 100 171 195 154 179 64 118 30 29 22 28 25 36 68
5 96 186 125 139 253 175 108 168 149 170 89 96 71 130 153 112 128 124 156 139 142 158 166 126 124 117 100 105 102 125 141 187 186 190 80 80 48 101 88 48 58 93 106 93
46 109 154 148 99 158 229 170 68 35 147 164 144 55 102 135 110 83 177 143 150 125 177 188 135 104 94 97 71 62 53 130 171 151 137 93 13 28 51 120 80 75 88 81 77
40 77 180 43 58 121 167 128 71 72 108 126 68 102 73 89 162 137 47 74 92 152 222 186 160 105 119 93 82 64 50 97 151 182 121 75 67 29 45 63 53 53 75 77 87